Wetterdaten: Freitag, 17.03.2017
Datum Zeit Temp. A. Feuchte A. Luftdruck Regen Wind Richtung Richtung Sonnenschein ET UV Solar Taupunkt Windchill Windben Empfang
17.03.2017 00:00 4,5 C 73 % 1020,3 hPa 0,0 l/m 4,1 km/h (1 Bft) S-SW 205 0 min 0,000 mm 0,0 UV-I 0 W/m 0,1 C 4,5 C 6,4 km/h (2 Bft) 100,00 %
17.03.2017 00:02 4,4 C 73 % 1020,2 hPa 0,0 l/m 4,9 km/h (1 Bft) S-SW 205 0 min 0,000 mm 0,0 UV-I 0 W/m -0,0 C 4,4 C 6,4 km/h (2 Bft) 100,00 %
17.03.2017 00:04 4,4 C 73 % 1020,2 hPa 0,0 l/m 5,0 km/h (1 Bft) S-SW 205 0 min 0,000 mm 0,0 UV-I 0 W/m -0,0 C 4,4 C 6,4 km/h (2 Bft) 100,00 %
17.03.2017 00:06 4,3 C 73 % 1020,2 hPa 0,0 l/m 4,2 km/h (1 Bft) S-SW 205 0 min 0,000 mm 0,0 UV-I 0 W/m -0,1 C 4,3 C 4,8 km/h (1 Bft) 98,21 %
17.03.2017 00:08 4,3 C 73 % 1020,2 hPa 0,0 l/m 3,7 km/h (1 Bft) S-SW 205 0 min 0,000 mm 0,0 UV-I 0 W/m -0,1 C 4,3 C 4,8 km/h (1 Bft) 98,00 %
17.03.2017 00:10 4,3 C 73 % 1020,2 hPa 0,0 l/m 2,1 km/h (1 Bft) S-SW 205 0 min 0,000 mm 0,0 UV-I 0 W/m -0,1 C 4,3 C 3,2 km/h (1 Bft) 100,00 %
17.03.2017 00:12 4,2 C 73 % 1020,2 hPa 0,0 l/m 1,9 km/h (1 Bft) S-SW 205 0 min 0,000 mm 0,0 UV-I 0 W/m -0,2 C 4,2 C 3,2 km/h (1 Bft) 98,00 %
17.03.2017 00:14 4,1 C 74 % 1020,3 hPa 0,0 l/m 2,7 km/h (1 Bft) S-SW 205 0 min 0,000 mm 0,0 UV-I 0 W/m -0,1 C 4,1 C 4,8 km/h (1 Bft) 100,00 %
17.03.2017 00:16 4,1 C 74 % 1020,3 hPa 0,0 l/m 3,4 km/h (1 Bft) S-SW 205 0 min 0,000 mm 0,0 UV-I 0 W/m -0,1 C 4,1 C 4,8 km/h (1 Bft) 96,23 %
17.03.2017 00:18 4,2 C 74 % 1020,2 hPa 0,0 l/m 4,0 km/h (1 Bft) S-SW 205 0 min 0,000 mm 0,0 UV-I 0 W/m -0,0 C 4,2 C 6,4 km/h (2 Bft) 96,00 %
17.03.2017 00:20 4,1 C 74 % 1020,1 hPa 0,0 l/m 3,0 km/h (1 Bft) S-SW 205 0 min 0,000 mm 0,0 UV-I 0 W/m -0,1 C 4,1 C 4,8 km/h (1 Bft) 98,00 %
17.03.2017 00:22 4,1 C 74 % 1020,1 hPa 0,0 l/m 3,0 km/h (1 Bft) S-SW 205 0 min 0,000 mm 0,0 UV-I 0 W/m -0,1 C 4,1 C 4,8 km/h (1 Bft) 95,74 %
17.03.2017 00:24 4,1 C 74 % 1020,2 hPa 0,0 l/m 2,7 km/h (1 Bft) S-SW 205 0 min 0,000 mm 0,0 UV-I 0 W/m -0,1 C 4,1 C 4,8 km/h (1 Bft) 94,74 %
17.03.2017 00:26 4,0 C 74 % 1020,1 hPa 0,0 l/m 1,9 km/h (1 Bft) S-SW 205 0 min 0,000 mm 0,0 UV-I 0 W/m -0,2 C 4,0 C 3,2 km/h (1 Bft) 97,87 %
17.03.2017 00:28 4,0 C 74 % 1020,1 hPa 0,0 l/m 1,7 km/h (1 Bft) S-SW 205 0 min 0,000 mm 0,0 UV-I 0 W/m -0,2 C 4,0 C 3,2 km/h (1 Bft) 95,74 %
17.03.2017 00:30 4,0 C 74 % 1020,1 hPa 0,0 l/m 2,5 km/h (1 Bft) S-SW 205 0 min 0,000 mm 0,0 UV-I 0 W/m -0,2 C 4,0 C 4,8 km/h (1 Bft) 98,00 %
17.03.2017 00:32 4,0 C 73 % 1020,1 hPa 0,0 l/m 1,4 km/h (1 Bft) S-SW 205 0 min 0,000 mm 0,0 UV-I 0 W/m -0,4 C 4,0 C 3,2 km/h (1 Bft) 96,00 %
17.03.2017 00:34 3,9 C 73 % 1020,1 hPa 0,0 l/m 0,9 km/h (0 Bft) S-SW 205 0 min 0,000 mm 0,0 UV-I 0 W/m -0,5 C 3,9 C 1,6 km/h (1 Bft) 90,00 %
17.03.2017 00:36 3,9 C 73 % 1020,1 hPa 0,0 l/m 0,6 km/h (0 Bft) S-SW 205 0 min 0,000 mm 0,0 UV-I 0 W/m -0,5 C 3,9 C 1,6 km/h (1 Bft) 100,00 %
17.03.2017 00:38 3,9 C 73 % 1020,1 hPa 0,0 l/m 0,5 km/h (0 Bft) S-SW 205 0 min 0,000 mm 0,0 UV-I 0 W/m -0,5 C 3,9 C 3,2 km/h (1 Bft) 94,00 %
17.03.2017 00:40 3,8 C 74 % 1020,0 hPa 0,0 l/m 2,2 km/h (1 Bft) S-SW 199 0 min 0,000 mm 0,0 UV-I 0 W/m -0,4 C 3,8 C 3,2 km/h (1 Bft) 97,62 %
17.03.2017 00:42 4,0 C 73 % 1020,0 hPa 0,0 l/m 3,2 km/h (1 Bft) S-SW 198 0 min 0,000 mm 0,0 UV-I 0 W/m -0,4 C 4,0 C 4,8 km/h (1 Bft) 100,00 %
17.03.2017 00:44 4,2 C 72 % 1020,0 hPa 0,0 l/m 3,1 km/h (1 Bft) S 176 0 min 0,000 mm 0,0 UV-I 0 W/m -0,4 C 4,2 C 6,4 km/h (2 Bft) 96,43 %
17.03.2017 00:46 4,3 C 72 % 1019,9 hPa 0,0 l/m 4,1 km/h (1 Bft) S 184 0 min 0,000 mm 0,0 UV-I 0 W/m -0,3 C 4,3 C 8,0 km/h (2 Bft) 98,11 %
17.03.2017 00:48 4,3 C 71 % 1019,9 hPa 0,0 l/m 2,4 km/h (1 Bft) S 174 0 min 0,000 mm 0,0 UV-I 0 W/m -0,5 C 4,3 C 4,8 km/h (1 Bft) 95,74 %
17.03.2017 00:50 4,3 C 71 % 1019,9 hPa 0,0 l/m 1,8 km/h (1 Bft) S 173 0 min 0,000 mm 0,0 UV-I 0 W/m -0,5 C 4,3 C 3,2 km/h (1 Bft) 95,74 %
17.03.2017 00:52 4,4 C 71 % 1019,9 hPa 0,0 l/m 1,0 km/h (0 Bft) S 174 0 min 0,000 mm 0,0 UV-I 0 W/m -0,4 C 4,4 C 3,2 km/h (1 Bft) 92,68 %
17.03.2017 00:54 4,4 C 70 % 1019,9 hPa 0,0 l/m 2,6 km/h (1 Bft) S 173 0 min 0,000 mm 0,0 UV-I 0 W/m -0,6 C 4,4 C 4,8 km/h (1 Bft) 97,37 %
17.03.2017 00:56 4,5 C 70 % 1019,9 hPa 0,0 l/m 2,2 km/h (1 Bft) S 173 0 min 0,000 mm 0,0 UV-I 0 W/m -0,5 C 4,5 C 3,2 km/h (1 Bft) 96,77 %
17.03.2017 00:58 4,6 C 69 % 1019,9 hPa 0,0 l/m 2,9 km/h (1 Bft) S 173 0 min 0,000 mm 0,0 UV-I 0 W/m -0,6 C 4,6 C 4,8 km/h (1 Bft) 92,68 %
17.03.2017 01:00 4,6 C 69 % 1019,9 hPa 0,0 l/m 3,7 km/h (1 Bft) S 170 0 min 0,000 mm 0,0 UV-I 0 W/m -0,6 C 4,6 C 6,4 km/h (2 Bft) 94,00 %
17.03.2017 01:02 4,6 C 69 % 1019,8 hPa 0,0 l/m 4,0 km/h (1 Bft) S 175 0 min 0,000 mm 0,0 UV-I 0 W/m -0,6 C 4,6 C 8,0 km/h (2 Bft) 91,49 %
17.03.2017 01:04 4,5 C 69 % 1019,8 hPa 0,0 l/m 2,8 km/h (1 Bft) S 173 0 min 0,000 mm 0,0 UV-I 0 W/m -0,7 C 4,5 C 4,8 km/h (1 Bft) 89,47 %
17.03.2017 01:06 4,4 C 69 % 1019,8 hPa 0,0 l/m 3,2 km/h (1 Bft) S 171 0 min 0,000 mm 0,0 UV-I 0 W/m -0,8 C 4,4 C 6,4 km/h (2 Bft) 91,07 %
17.03.2017 01:08 4,4 C 69 % 1019,7 hPa 0,0 l/m 2,3 km/h (1 Bft) S 172 0 min 0,000 mm 0,0 UV-I 0 W/m -0,8 C 4,4 C 4,8 km/h (1 Bft) 93,62 %
17.03.2017 01:10 4,3 C 69 % 1019,6 hPa 0,0 l/m 1,9 km/h (1 Bft) S 172 0 min 0,000 mm 0,0 UV-I 0 W/m -0,9 C 4,3 C 3,2 km/h (1 Bft) 96,00 %
17.03.2017 01:12 4,3 C 69 % 1019,6 hPa 0,0 l/m 3,5 km/h (1 Bft) S 172 0 min 0,000 mm 0,0 UV-I 0 W/m -0,9 C 4,3 C 8,0 km/h (2 Bft) 91,49 %
17.03.2017 01:14 4,4 C 69 % 1019,6 hPa 0,0 l/m 2,5 km/h (1 Bft) S 172 0 min 0,000 mm 0,0 UV-I 0 W/m -0,8 C 4,4 C 4,8 km/h (1 Bft) 94,74 %
17.03.2017 01:16 4,4 C 69 % 1019,6 hPa 0,0 l/m 1,9 km/h (1 Bft) S 172 0 min 0,000 mm 0,0 UV-I 0 W/m -0,8 C 4,4 C 4,8 km/h (1 Bft) 94,34 %
17.03.2017 01:18 4,4 C 69 % 1019,5 hPa 0,0 l/m 3,0 km/h (1 Bft) S 172 0 min 0,000 mm 0,0 UV-I 0 W/m -0,8 C 4,4 C 4,8 km/h (1 Bft) 92,68 %
17.03.2017 01:20 4,4 C 69 % 1019,5 hPa 0,0 l/m 5,7 km/h (1 Bft) S 182 0 min 0,000 mm 0,0 UV-I 0 W/m -0,8 C 4,4 C 8,0 km/h (2 Bft) 96,00 %
17.03.2017 01:22 4,4 C 68 % 1019,5 hPa 0,0 l/m 4,0 km/h (1 Bft) S 182 0 min 0,000 mm 0,0 UV-I 0 W/m -1,0 C 4,4 C 8,0 km/h (2 Bft) 92,45 %
17.03.2017 01:24 4,4 C 68 % 1019,5 hPa 0,0 l/m 3,4 km/h (1 Bft) S 182 0 min 0,000 mm 0,0 UV-I 0 W/m -1,0 C 4,4 C 6,4 km/h (2 Bft) 93,62 %
17.03.2017 01:26 4,4 C 68 % 1019,5 hPa 0,0 l/m 2,9 km/h (1 Bft) S 180 0 min 0,000 mm 0,0 UV-I 0 W/m -1,0 C 4,4 C 4,8 km/h (1 Bft) 92,86 %
17.03.2017 01:28 4,4 C 68 % 1019,4 hPa 0,0 l/m 2,3 km/h (1 Bft) S 180 0 min 0,000 mm 0,0 UV-I 0 W/m -1,0 C 4,4 C 4,8 km/h (1 Bft) 92,00 %
17.03.2017 01:30 4,5 C 68 % 1019,4 hPa 0,0 l/m 3,9 km/h (1 Bft) S 177 0 min 0,000 mm 0,0 UV-I 0 W/m -0,9 C 4,5 C 6,4 km/h (2 Bft) 95,74 %
17.03.2017 01:32 4,5 C 67 % 1019,4 hPa 0,0 l/m 2,5 km/h (1 Bft) S 173 0 min 0,000 mm 0,0 UV-I 0 W/m -1,1 C 4,5 C 4,8 km/h (1 Bft) 93,75 %
17.03.2017 01:34 4,5 C 67 % 1019,4 hPa 0,0 l/m 2,3 km/h (1 Bft) S 173 0 min 0,000 mm 0,0 UV-I 0 W/m -1,1 C 4,5 C 4,8 km/h (1 Bft) 97,56 %
17.03.2017 01:36 4,4 C 67 % 1019,3 hPa 0,0 l/m 2,0 km/h (1 Bft) S 173 0 min 0,000 mm 0,0 UV-I 0 W/m -1,2 C 4,4 C 8,0 km/h (2 Bft) 96,23 %
17.03.2017 01:38 4,4 C 67 % 1019,2 hPa 0,0 l/m 2,9 km/h (1 Bft) S 174 0 min 0,000 mm 0,0 UV-I 0 W/m -1,2 C 4,4 C 6,4 km/h (2 Bft) 97,56 %
17.03.2017 01:40 4,4 C 68 % 1019,2 hPa 0,0 l/m 3,6 km/h (1 Bft) S-SW 196 0 min 0,000 mm 0,0 UV-I 0 W/m -1,0 C 4,4 C 6,4 km/h (2 Bft) 96,23 %
17.03.2017 01:42 4,3 C 68 % 1019,2 hPa 0,0 l/m 2,3 km/h (1 Bft) S-SW 196 0 min 0,000 mm 0,0 UV-I 0 W/m -1,1 C 4,3 C 4,8 km/h (1 Bft) 95,74 %
17.03.2017 01:44 4,1 C 68 % 1019,1 hPa 0,0 l/m 1,0 km/h (0 Bft) S-SW 196 0 min 0,000 mm 0,0 UV-I 0 W/m -1,3 C 4,1 C 3,2 km/h (1 Bft) 94,74 %
17.03.2017 01:46 3,9 C 69 % 1019,1 hPa 0,0 l/m 0,9 km/h (0 Bft) S-SW 196 0 min 0,000 mm 0,0 UV-I 0 W/m -1,3 C 3,9 C 3,2 km/h (1 Bft) 94,00 %
17.03.2017 01:48 3,7 C 70 % 1019,1 hPa 0,0 l/m 1,1 km/h (1 Bft) S-SW 196 0 min 0,000 mm 0,0 UV-I 0 W/m -1,3 C 3,7 C 3,2 km/h (1 Bft) 97,87 %
17.03.2017 01:50 3,5 C 72 % 1019,0 hPa 0,0 l/m 1,6 km/h (1 Bft) S-SW 196 0 min 0,000 mm 0,0 UV-I 0 W/m -1,1 C 3,5 C 3,2 km/h (1 Bft) 97,56 %
17.03.2017 01:52 3,4 C 72 % 1019,0 hPa 0,0 l/m 1,0 km/h (0 Bft) S-SW 196 0 min 0,000 mm 0,0 UV-I 0 W/m -1,2 C 3,4 C 3,2 km/h (1 Bft) 98,00 %
17.03.2017 01:54 3,3 C 72 % 1018,9 hPa 0,0 l/m 1,7 km/h (1 Bft) S-SW 196 0 min 0,000 mm 0,0 UV-I 0 W/m -1,3 C 3,3 C 3,2 km/h (1 Bft) 100,00 %
17.03.2017 01:56 3,3 C 72 % 1018,8 hPa 0,0 l/m 1,4 km/h (1 Bft) S-SW 196 0 min 0,000 mm 0,0 UV-I 0 W/m -1,3 C 3,3 C 3,2 km/h (1 Bft) 98,00 %
17.03.2017 01:58 3,3 C 73 % 1018,8 hPa 0,0 l/m 1,3 km/h (1 Bft) S-SW 196 0 min 0,000 mm 0,0 UV-I 0 W/m -1,1 C 3,3 C 3,2 km/h (1 Bft) 96,00 %
17.03.2017 02:00 3,2 C 73 % 1018,8 hPa 0,0 l/m 1,6 km/h (1 Bft) S-SW 196 0 min 0,000 mm 0,0 UV-I 0 W/m -1,2 C 3,2 C 3,2 km/h (1 Bft) 96,00 %
17.03.2017 02:02 3,2 C 73 % 1018,8 hPa 0,0 l/m 3,0 km/h (1 Bft) S-SW 196 0 min 0,000 mm 0,0 UV-I 0 W/m -1,2 C 3,2 C 4,8 km/h (1 Bft) 97,78 %
17.03.2017 02:04 3,2 C 74 % 1018,7 hPa 0,0 l/m 1,9 km/h (1 Bft) S-SW 196 0 min 0,000 mm 0,0 UV-I 0 W/m -1,0 C 3,2 C 3,2 km/h (1 Bft) 96,15 %
17.03.2017 02:06 3,2 C 74 % 1018,7 hPa 0,0 l/m 0,9 km/h (0 Bft) S-SW 196 0 min 0,000 mm 0,0 UV-I 0 W/m -1,0 C 3,2 C 3,2 km/h (1 Bft) 97,92 %
17.03.2017 02:08 3,2 C 73 % 1018,7 hPa 0,0 l/m 0,5 km/h (0 Bft) S-SW 196 0 min 0,000 mm 0,0 UV-I 0 W/m -1,2 C 3,2 C 3,2 km/h (1 Bft) 97,56 %
17.03.2017 02:10 3,3 C 73 % 1018,7 hPa 0,0 l/m 0,8 km/h (0 Bft) S-SW 196 0 min 0,000 mm 0,0 UV-I 0 W/m -1,1 C 3,3 C 3,2 km/h (1 Bft) 100,00 %
17.03.2017 02:12 3,3 C 73 % 1018,8 hPa 0,0 l/m 1,8 km/h (1 Bft) S-SW 196 0 min 0,000 mm 0,0 UV-I 0 W/m -1,1 C 3,3 C 3,2 km/h (1 Bft) 94,00 %
17.03.2017 02:14 3,3 C 73 % 1018,8 hPa 0,0 l/m 1,5 km/h (1 Bft) S-SW 196 0 min 0,000 mm 0,0 UV-I 0 W/m -1,1 C 3,3 C 3,2 km/h (1 Bft) 100,00 %
17.03.2017 02:16 3,3 C 73 % 1018,7 hPa 0,0 l/m 0,9 km/h (0 Bft) S-SW 196 0 min 0,000 mm 0,0 UV-I 0 W/m -1,1 C 3,3 C 1,6 km/h (1 Bft) 100,00 %
17.03.2017 02:18 3,2 C 73 % 1018,8 hPa 0,0 l/m 1,6 km/h (1 Bft) S-SW 196 0 min 0,000 mm 0,0 UV-I 0 W/m -1,2 C 3,2 C 3,2 km/h (1 Bft) 100,00 %
17.03.2017 02:20 2,9 C 74 % 1018,7 hPa 0,0 l/m 0,3 km/h (0 Bft) S-SW 196 0 min 0,000 mm 0,0 UV-I 0 W/m -1,3 C 2,9 C 1,6 km/h (1 Bft) 100,00 %
17.03.2017 02:22 2,3 C 76 % 1018,8 hPa 0,0 l/m 0,0 km/h (0 Bft) S-SW 196 0 min 0,000 mm 0,0 UV-I 0 W/m -1,5 C 2,3 C 0,0 km/h (0 Bft) 95,45 %
17.03.2017 02:24 1,9 C 79 % 1018,8 hPa 0,0 l/m 0,0 km/h (0 Bft) S-SW 196 0 min 0,000 mm 0,0 UV-I 0 W/m -1,3 C 1,9 C 0,0 km/h (0 Bft) 96,23 %
17.03.2017 02:26 1,7 C 80 % 1018,7 hPa 0,0 l/m 0,0 km/h (0 Bft) S-SW 196 0 min 0,000 mm 0,0 UV-I 0 W/m -1,4 C 1,7 C 1,6 km/h (1 Bft) 97,87 %
17.03.2017 02:28 1,7 C 81 % 1018,8 hPa 0,0 l/m 0,6 km/h (0 Bft) S-SW 196 0 min 0,000 mm 0,0 UV-I 0 W/m -1,2 C 1,7 C 1,6 km/h (1 Bft) 98,00 %
17.03.2017 02:30 1,6 C 81 % 1018,8 hPa 0,0 l/m 2,4 km/h (1 Bft) S-SW 196 0 min 0,000 mm 0,0 UV-I 0 W/m -1,3 C 1,6 C 3,2 km/h (1 Bft) 100,00 %
17.03.2017 02:32 1,7 C 81 % 1018,8 hPa 0,0 l/m 4,6 km/h (1 Bft) SO 128 0 min 0,000 mm 0,0 UV-I 0 W/m -1,2 C 1,7 C 6,4 km/h (2 Bft) 98,00 %
17.03.2017 02:34 1,7 C 81 % 1018,7 hPa 0,0 l/m 5,7 km/h (1 Bft) O-NO 62 0 min 0,000 mm 0,0 UV-I 0 W/m -1,2 C 1,7 C 6,4 km/h (2 Bft) 97,37 %
17.03.2017 02:36 1,7 C 82 % 1018,8 hPa 0,0 l/m 5,8 km/h (2 Bft) O-NO 61 0 min 0,000 mm 0,0 UV-I 0 W/m -1,0 C 1,7 C 6,4 km/h (2 Bft) 100,00 %
17.03.2017 02:38 1,7 C 82 % 1018,8 hPa 0,0 l/m 5,5 km/h (1 Bft) O-NO 61 0 min 0,000 mm 0,0 UV-I 0 W/m -1,0 C 1,7 C 6,4 km/h (2 Bft) 98,00 %
17.03.2017 02:40 1,6 C 83 % 1018,8 hPa 0,0 l/m 6,0 km/h (2 Bft) O-NO 57 0 min 0,000 mm 0,0 UV-I 0 W/m -1,0 C 1,6 C 8,0 km/h (2 Bft) 100,00 %
17.03.2017 02:42 1,6 C 83 % 1018,8 hPa 0,0 l/m 6,0 km/h (2 Bft) NO 53 0 min 0,000 mm 0,0 UV-I 0 W/m -1,0 C 1,6 C 8,0 km/h (2 Bft) 100,00 %
17.03.2017 02:44 1,6 C 83 % 1018,8 hPa 0,0 l/m 5,5 km/h (1 Bft) NO 49 0 min 0,000 mm 0,0 UV-I 0 W/m -1,0 C 1,6 C 8,0 km/h (2 Bft) 97,44 %
17.03.2017 02:46 1,5 C 83 % 1018,8 hPa 0,0 l/m 5,4 km/h (1 Bft) NO 49 0 min 0,000 mm 0,0 UV-I 0 W/m -1,1 C 1,5 C 6,4 km/h (2 Bft) 98,00 %
17.03.2017 02:48 1,5 C 84 % 1018,7 hPa 0,0 l/m 5,3 km/h (1 Bft) NO 49 0 min 0,000 mm 0,0 UV-I 0 W/m -0,9 C 1,5 C 6,4 km/h (2 Bft) 98,00 %
17.03.2017 02:50 1,6 C 84 % 1018,7 hPa 0,0 l/m 5,8 km/h (2 Bft) NO 35 0 min 0,000 mm 0,0 UV-I 0 W/m -0,8 C 1,6 C 6,4 km/h (2 Bft) 97,37 %
17.03.2017 02:52 1,5 C 85 % 1018,8 hPa 0,0 l/m 5,5 km/h (1 Bft) NO 36 0 min 0,000 mm 0,0 UV-I 0 W/m -0,7 C 1,5 C 6,4 km/h (2 Bft) 94,34 %
17.03.2017 02:54 1,6 C 85 % 1018,7 hPa 0,0 l/m 6,3 km/h (2 Bft) N-NO 31 0 min 0,000 mm 0,0 UV-I 0 W/m -0,6 C 1,6 C 9,7 km/h (2 Bft) 97,56 %
17.03.2017 02:56 1,6 C 86 % 1018,7 hPa 0,0 l/m 4,8 km/h (1 Bft) N-NO 31 0 min 0,000 mm 0,0 UV-I 0 W/m -0,5 C 1,6 C 6,4 km/h (2 Bft) 100,00 %
17.03.2017 02:58 1,7 C 86 % 1018,6 hPa 0,0 l/m 4,6 km/h (1 Bft) N-NO 31 0 min 0,000 mm 0,0 UV-I 0 W/m -0,4 C 1,7 C 6,4 km/h (2 Bft) 100,00 %
17.03.2017 03:00 1,7 C 86 % 1018,5 hPa 0,0 l/m 3,8 km/h (1 Bft) N-NO 31 0 min 0,000 mm 0,0 UV-I 0 W/m -0,4 C 1,7 C 4,8 km/h (1 Bft) 97,87 %
17.03.2017 03:02 1,7 C 85 % 1018,6 hPa 0,0 l/m 2,8 km/h (1 Bft) N-NO 31 0 min 0,000 mm 0,0 UV-I 0 W/m -0,5 C 1,7 C 4,8 km/h (1 Bft) 96,23 %
17.03.2017 03:04 1,7 C 86 % 1018,5 hPa 0,0 l/m 2,6 km/h (1 Bft) N-NO 31 0 min 0,000 mm 0,0 UV-I 0 W/m -0,4 C 1,7 C 3,2 km/h (1 Bft) 100,00 %
17.03.2017 03:06 1,6 C 86 % 1018,5 hPa 0,0 l/m 2,8 km/h (1 Bft) N-NO 31 0 min 0,000 mm 0,0 UV-I 0 W/m -0,5 C 1,6 C 3,2 km/h (1 Bft) 98,00 %
17.03.2017 03:08 1,6 C 86 % 1018,5 hPa 0,0 l/m 2,3 km/h (1 Bft) N-NO 31 0 min 0,000 mm 0,0 UV-I 0 W/m -0,5 C 1,6 C 3,2 km/h (1 Bft) 97,56 %
17.03.2017 03:10 1,6 C 87 % 1018,5 hPa 0,0 l/m 0,9 km/h (0 Bft) N-NO 31 0 min 0,000 mm 0,0 UV-I 0 W/m -0,3 C 1,6 C 1,6 km/h (1 Bft) 92,16 %
17.03.2017 03:12 1,6 C 87 % 1018,5 hPa 0,0 l/m 0,0 km/h (0 Bft) N-NO 31 0 min 0,000 mm 0,0 UV-I 0 W/m -0,3 C 1,6 C 1,6 km/h (1 Bft) 98,00 %
17.03.2017 03:14 1,7 C 87 % 1018,4 hPa 0,0 l/m 0,1 km/h (0 Bft) N-NO 31 0 min 0,000 mm 0,0 UV-I 0 W/m -0,2 C 1,7 C 1,6 km/h (1 Bft) 98,00 %
17.03.2017 03:16 1,6 C 86 % 1018,4 hPa 0,0 l/m 1,8 km/h (1 Bft) N-NO 31 0 min 0,000 mm 0,0 UV-I 0 W/m -0,5 C 1,6 C 3,2 km/h (1 Bft) 95,74 %
17.03.2017 03:18 1,4 C 86 % 1018,4 hPa 0,0 l/m 2,8 km/h (1 Bft) N-NO 31 0 min 0,000 mm 0,0 UV-I 0 W/m -0,7 C 1,4 C 3,2 km/h (1 Bft) 97,44 %
17.03.2017 03:20 1,3 C 86 % 1018,4 hPa 0,0 l/m 3,1 km/h (1 Bft) N-NO 31 0 min 0,000 mm 0,0 UV-I 0 W/m -0,8 C 1,3 C 3,2 km/h (1 Bft) 98,18 %
17.03.2017 03:22 1,2 C 87 % 1018,4 hPa 0,0 l/m 3,0 km/h (1 Bft) N-NO 31 0 min 0,000 mm 0,0 UV-I 0 W/m -0,7 C 1,2 C 4,8 km/h (1 Bft) 95,74 %
17.03.2017 03:24 1,1 C 87 % 1018,4 hPa 0,0 l/m 2,8 km/h (1 Bft) N-NO 31 0 min 0,000 mm 0,0 UV-I 0 W/m -0,8 C 1,1 C 4,8 km/h (1 Bft) 89,36 %
17.03.2017 03:26 1,0 C 87 % 1018,4 hPa 0,0 l/m 1,7 km/h (1 Bft) N-NO 31 0 min 0,000 mm 0,0 UV-I 0 W/m -0,9 C 1,0 C 3,2 km/h (1 Bft) 94,87 %
17.03.2017 03:28 0,9 C 88 % 1018,4 hPa 0,0 l/m 2,9 km/h (1 Bft) N-NO 31 0 min 0,000 mm 0,0 UV-I 0 W/m -0,9 C 0,9 C 4,8 km/h (1 Bft) 91,07 %
17.03.2017 03:30 0,9 C 88 % 1018,3 hPa 0,0 l/m 3,5 km/h (1 Bft) N-NO 31 0 min 0,000 mm 0,0 UV-I 0 W/m -0,9 C 0,9 C 4,8 km/h (1 Bft) 97,37 %
17.03.2017 03:32 0,8 C 88 % 1018,3 hPa 0,0 l/m 3,3 km/h (1 Bft) N-NO 31 0 min 0,000 mm 0,0 UV-I 0 W/m -1,0 C 0,8 C 4,8 km/h (1 Bft) 95,74 %
17.03.2017 03:34 0,8 C 88 % 1018,3 hPa 0,0 l/m 2,7 km/h (1 Bft) N-NO 31 0 min 0,000 mm 0,0 UV-I 0 W/m -1,0 C 0,8 C 3,2 km/h (1 Bft) 98,11 %
17.03.2017 03:36 0,7 C 88 % 1018,3 hPa 0,0 l/m 2,5 km/h (1 Bft) N-NO 31 0 min 0,000 mm 0,0 UV-I 0 W/m -1,1 C 0,7 C 3,2 km/h (1 Bft) 97,56 %
17.03.2017 03:38 0,6 C 88 % 1018,3 hPa 0,0 l/m 3,7 km/h (1 Bft) NO 42 0 min 0,000 mm 0,0 UV-I 0 W/m -1,2 C 0,6 C 4,8 km/h (1 Bft) 97,87 %
17.03.2017 03:40 0,6 C 89 % 1018,2 hPa 0,0 l/m 4,4 km/h (1 Bft) O 88 0 min 0,000 mm 0,0 UV-I 0 W/m -1,0 C 0,6 C 4,8 km/h (1 Bft) 98,11 %
17.03.2017 03:42 0,6 C 89 % 1018,2 hPa 0,0 l/m 4,9 km/h (1 Bft) O 98 0 min 0,000 mm 0,0 UV-I 0 W/m -1,0 C 0,6 C 6,4 km/h (2 Bft) 95,74 %
17.03.2017 03:44 0,7 C 89 % 1018,1 hPa 0,0 l/m 4,5 km/h (1 Bft) O 98 0 min 0,000 mm 0,0 UV-I 0 W/m -0,9 C 0,7 C 4,8 km/h (1 Bft) 93,18 %
17.03.2017 03:46 0,7 C 89 % 1018,1 hPa 0,0 l/m 3,8 km/h (1 Bft) O 98 0 min 0,000 mm 0,0 UV-I 0 W/m -0,9 C 0,7 C 4,8 km/h (1 Bft) 100,00 %
17.03.2017 03:48 0,8 C 89 % 1018,0 hPa 0,0 l/m 2,9 km/h (1 Bft) O 98 0 min 0,000 mm 0,0 UV-I 0 W/m -0,8 C 0,8 C 4,8 km/h (1 Bft) 97,56 %
17.03.2017 03:50 0,8 C 89 % 1018,0 hPa 0,0 l/m 1,2 km/h (1 Bft) O 98 0 min 0,000 mm 0,0 UV-I 0 W/m -0,8 C 0,8 C 3,2 km/h (1 Bft) 100,00 %
17.03.2017 03:52 0,8 C 88 % 1018,0 hPa 0,0 l/m 1,4 km/h (1 Bft) O 98 0 min 0,000 mm 0,0 UV-I 0 W/m -1,0 C 0,8 C 3,2 km/h (1 Bft) 100,00 %
17.03.2017 03:54 0,8 C 88 % 1018,0 hPa 0,0 l/m 1,1 km/h (1 Bft) O 98 0 min 0,000 mm 0,0 UV-I 0 W/m -1,0 C 0,8 C 3,2 km/h (1 Bft) 100,00 %
17.03.2017 03:56 0,8 C 88 % 1018,0 hPa 0,0 l/m 0,9 km/h (0 Bft) O 98 0 min 0,000 mm 0,0 UV-I 0 W/m -1,0 C 0,8 C 3,2 km/h (1 Bft) 98,00 %
17.03.2017 03:58 0,8 C 89 % 1018,0 hPa 0,0 l/m 1,6 km/h (1 Bft) O 98 0 min 0,000 mm 0,0 UV-I 0 W/m -0,8 C 0,8 C 3,2 km/h (1 Bft) 98,00 %
17.03.2017 04:00 0,9 C 88 % 1018,0 hPa 0,0 l/m 0,8 km/h (0 Bft) O 98 0 min 0,000 mm 0,0 UV-I 0 W/m -0,9 C 0,9 C 3,2 km/h (1 Bft) 100,00 %
17.03.2017 04:02 0,9 C 88 % 1018,0 hPa 0,0 l/m 2,1 km/h (1 Bft) O 98 0 min 0,000 mm 0,0 UV-I 0 W/m -0,9 C 0,9 C 3,2 km/h (1 Bft) 100,00 %
17.03.2017 04:04 0,8 C 88 % 1017,9 hPa 0,0 l/m 1,2 km/h (1 Bft) O 98 0 min 0,000 mm 0,0 UV-I 0 W/m -1,0 C 0,8 C 1,6 km/h (1 Bft) 96,00 %
17.03.2017 04:06 0,8 C 88 % 1017,9 hPa 0,0 l/m 0,4 km/h (0 Bft) O 98 0 min 0,000 mm 0,0 UV-I 0 W/m -1,0 C 0,8 C 1,6 km/h (1 Bft) 94,74 %
17.03.2017 04:08 0,8 C 88 % 1017,9 hPa 0,0 l/m 1,1 km/h (1 Bft) O 98 0 min 0,000 mm 0,0 UV-I 0 W/m -1,0 C 0,8 C 3,2 km/h (1 Bft) 98,00 %
17.03.2017 04:10 0,7 C 87 % 1017,9 hPa 0,0 l/m 1,1 km/h (1 Bft) O 98 0 min 0,000 mm 0,0 UV-I 0 W/m -1,2 C 0,7 C 3,2 km/h (1 Bft) 98,00 %
17.03.2017 04:12 0,7 C 88 % 1017,9 hPa 0,0 l/m 3,6 km/h (1 Bft) O 98 0 min 0,000 mm 0,0 UV-I 0 W/m -1,1 C 0,7 C 4,8 km/h (1 Bft) 96,00 %
17.03.2017 04:14 0,6 C 88 % 1017,8 hPa 0,0 l/m 4,8 km/h (1 Bft) O 98 0 min 0,000 mm 0,0 UV-I 0 W/m -1,2 C 0,6 C 6,4 km/h (2 Bft) 97,87 %
17.03.2017 04:16 0,5 C 88 % 1017,8 hPa 0,0 l/m 3,8 km/h (1 Bft) O 98 0 min 0,000 mm 0,0 UV-I 0 W/m -1,3 C 0,5 C 6,4 km/h (2 Bft) 100,00 %
17.03.2017 04:18 0,6 C 89 % 1017,8 hPa 0,0 l/m 3,7 km/h (1 Bft) O 98 0 min 0,000 mm 0,0 UV-I 0 W/m -1,0 C 0,6 C 6,4 km/h (2 Bft) 98,00 %
17.03.2017 04:20 0,7 C 88 % 1017,8 hPa 0,0 l/m 2,4 km/h (1 Bft) O 98 0 min 0,000 mm 0,0 UV-I 0 W/m -1,1 C 0,7 C 4,8 km/h (1 Bft) 100,00 %
17.03.2017 04:22 0,8 C 88 % 1017,8 hPa 0,0 l/m 2,8 km/h (1 Bft) O 98 0 min 0,000 mm 0,0 UV-I 0 W/m -1,0 C 0,8 C 4,8 km/h (1 Bft) 97,37 %
17.03.2017 04:24 0,9 C 88 % 1017,8 hPa 0,0 l/m 2,4 km/h (1 Bft) O 98 0 min 0,000 mm 0,0 UV-I 0 W/m -0,9 C 0,9 C 3,2 km/h (1 Bft) 100,00 %
17.03.2017 04:26 0,9 C 87 % 1017,8 hPa 0,0 l/m 2,5 km/h (1 Bft) O 98 0 min 0,000 mm 0,0 UV-I 0 W/m -1,0 C 0,9 C 3,2 km/h (1 Bft) 97,56 %
17.03.2017 04:28 0,9 C 87 % 1017,8 hPa 0,0 l/m 0,4 km/h (0 Bft) O 98 0 min 0,000 mm 0,0 UV-I 0 W/m -1,0 C 0,9 C 3,2 km/h (1 Bft) 96,23 %
17.03.2017 04:30 0,9 C 87 % 1017,8 hPa 0,0 l/m 0,0 km/h (0 Bft) O 98 0 min 0,000 mm 0,0 UV-I 0 W/m -1,0 C 0,9 C 0,0 km/h (0 Bft) 98,11 %
17.03.2017 04:32 0,8 C 87 % 1017,8 hPa 0,0 l/m 0,0 km/h (0 Bft) O 98 0 min 0,000 mm 0,0 UV-I 0 W/m -1,1 C 0,8 C 0,0 km/h (0 Bft) 100,00 %
17.03.2017 04:34 0,7 C 87 % 1017,8 hPa 0,0 l/m 0,0 km/h (0 Bft) O 98 0 min 0,000 mm 0,0 UV-I 0 W/m -1,2 C 0,7 C 0,0 km/h (0 Bft) 96,23 %
17.03.2017 04:36 0,6 C 87 % 1017,8 hPa 0,0 l/m 0,0 km/h (0 Bft) O 98 0 min 0,000 mm 0,0 UV-I 0 W/m -1,3 C 0,6 C 0,0 km/h (0 Bft) 94,34 %
17.03.2017 04:38 0,4 C 87 % 1017,8 hPa 0,0 l/m 0,0 km/h (0 Bft) O 98 0 min 0,000 mm 0,0 UV-I 0 W/m -1,5 C 0,4 C 0,0 km/h (0 Bft) 97,87 %
17.03.2017 04:40 0,4 C 88 % 1017,7 hPa 0,0 l/m 0,0 km/h (0 Bft) O 98 0 min 0,000 mm 0,0 UV-I 0 W/m -1,3 C 0,4 C 0,0 km/h (0 Bft) 97,62 %
17.03.2017 04:42 0,3 C 88 % 1017,7 hPa 0,0 l/m 0,1 km/h (0 Bft) O 98 0 min 0,000 mm 0,0 UV-I 0 W/m -1,4 C 0,3 C 1,6 km/h (1 Bft) 94,87 %
17.03.2017 04:44 0,3 C 88 % 1017,6 hPa 0,0 l/m 0,4 km/h (0 Bft) O 98 0 min 0,000 mm 0,0 UV-I 0 W/m -1,4 C 0,3 C 1,6 km/h (1 Bft) 96,43 %
17.03.2017 04:46 0,3 C 88 % 1017,6 hPa 0,0 l/m 1,9 km/h (1 Bft) O 98 0 min 0,000 mm 0,0 UV-I 0 W/m -1,4 C 0,3 C 4,8 km/h (1 Bft) 95,12 %
17.03.2017 04:48 0,2 C 88 % 1017,6 hPa 0,0 l/m 3,6 km/h (1 Bft) O 98 0 min 0,000 mm 0,0 UV-I 0 W/m -1,5 C 0,2 C 4,8 km/h (1 Bft) 91,49 %
17.03.2017 04:50 0,3 C 88 % 1017,6 hPa 0,0 l/m 3,7 km/h (1 Bft) O 98 0 min 0,000 mm 0,0 UV-I 0 W/m -1,4 C 0,3 C 4,8 km/h (1 Bft) 98,00 %
17.03.2017 04:52 0,3 C 89 % 1017,6 hPa 0,0 l/m 4,1 km/h (1 Bft) O 99 0 min 0,000 mm 0,0 UV-I 0 W/m -1,3 C 0,3 C 4,8 km/h (1 Bft) 89,36 %
17.03.2017 04:54 0,3 C 89 % 1017,6 hPa 0,0 l/m 4,4 km/h (1 Bft) O 101 0 min 0,000 mm 0,0 UV-I 0 W/m -1,3 C 0,3 C 4,8 km/h (1 Bft) 96,23 %
17.03.2017 04:56 0,3 C 89 % 1017,6 hPa 0,0 l/m 4,3 km/h (1 Bft) O-SO 109 0 min 0,000 mm 0,0 UV-I 0 W/m -1,3 C 0,3 C 6,4 km/h (2 Bft) 100,00 %
17.03.2017 04:58 0,3 C 89 % 1017,6 hPa 0,0 l/m 4,0 km/h (1 Bft) O-SO 110 0 min 0,000 mm 0,0 UV-I 0 W/m -1,3 C 0,3 C 6,4 km/h (2 Bft) 94,34 %
17.03.2017 05:00 0,4 C 89 % 1017,6 hPa 0,0 l/m 3,7 km/h (1 Bft) O-SO 110 0 min 0,000 mm 0,0 UV-I 0 W/m -1,2 C 0,4 C 4,8 km/h (1 Bft) 93,62 %
17.03.2017 05:02 0,4 C 88 % 1017,5 hPa 0,0 l/m 1,0 km/h (0 Bft) O-SO 110 0 min 0,000 mm 0,0 UV-I 0 W/m -1,3 C 0,4 C 3,2 km/h (1 Bft) 95,74 %
17.03.2017 05:04 0,4 C 88 % 1017,5 hPa 0,0 l/m 1,5 km/h (1 Bft) O-SO 110 0 min 0,000 mm 0,0 UV-I 0 W/m -1,3 C 0,4 C 3,2 km/h (1 Bft) 95,74 %
17.03.2017 05:06 0,3 C 88 % 1017,6 hPa 0,0 l/m 1,7 km/h (1 Bft) O-SO 110 0 min 0,000 mm 0,0 UV-I 0 W/m -1,4 C 0,3 C 3,2 km/h (1 Bft) 92,00 %
17.03.2017 05:08 0,3 C 88 % 1017,5 hPa 0,0 l/m 2,7 km/h (1 Bft) O-SO 110 0 min 0,000 mm 0,0 UV-I 0 W/m -1,4 C 0,3 C 4,8 km/h (1 Bft) 95,12 %
17.03.2017 05:10 0,3 C 89 % 1017,5 hPa 0,0 l/m 3,8 km/h (1 Bft) O-SO 110 0 min 0,000 mm 0,0 UV-I 0 W/m -1,3 C 0,3 C 4,8 km/h (1 Bft) 93,62 %
17.03.2017 05:12 0,4 C 88 % 1017,5 hPa 0,0 l/m 3,4 km/h (1 Bft) O-SO 110 0 min 0,000 mm 0,0 UV-I 0 W/m -1,3 C 0,4 C 4,8 km/h (1 Bft) 96,00 %
17.03.2017 05:14 0,3 C 88 % 1017,5 hPa 0,0 l/m 0,5 km/h (0 Bft) O-SO 110 0 min 0,000 mm 0,0 UV-I 0 W/m -1,4 C 0,3 C 1,6 km/h (1 Bft) 92,11 %
17.03.2017 05:16 0,3 C 88 % 1017,5 hPa 0,0 l/m 0,0 km/h (0 Bft) O-SO 110 0 min 0,000 mm 0,0 UV-I 0 W/m -1,4 C 0,3 C 0,0 km/h (0 Bft) 95,74 %
17.03.2017 05:18 0,3 C 88 % 1017,5 hPa 0,0 l/m 0,5 km/h (0 Bft) O-SO 110 0 min 0,000 mm 0,0 UV-I 0 W/m -1,4 C 0,3 C 3,2 km/h (1 Bft) 92,00 %
17.03.2017 05:20 0,2 C 88 % 1017,4 hPa 0,0 l/m 0,0 km/h (0 Bft) O-SO 110 0 min 0,000 mm 0,0 UV-I 0 W/m -1,5 C 0,2 C 0,0 km/h (0 Bft) 96,00 %
17.03.2017 05:22 0,2 C 88 % 1017,5 hPa 0,0 l/m 0,8 km/h (0 Bft) O-SO 110 0 min 0,000 mm 0,0 UV-I 0 W/m -1,5 C 0,2 C 3,2 km/h (1 Bft) 91,67 %
17.03.2017 05:24 0,1 C 88 % 1017,5 hPa 0,0 l/m 0,0 km/h (0 Bft) O-SO 110 0 min 0,000 mm 0,0 UV-I 0 W/m -1,6 C 0,1 C 1,6 km/h (1 Bft) 94,64 %
17.03.2017 05:26 0,1 C 88 % 1017,6 hPa 0,0 l/m 0,6 km/h (0 Bft) O-SO 110 0 min 0,000 mm 0,0 UV-I 0 W/m -1,6 C 0,1 C 1,6 km/h (1 Bft) 94,00 %
17.03.2017 05:28 0,0 C 88 % 1017,6 hPa 0,0 l/m 1,3 km/h (1 Bft) O-SO 110 0 min 0,000 mm 0,0 UV-I 0 W/m -1,7 C 0,0 C 3,2 km/h (1 Bft) 95,12 %
17.03.2017 05:30 -0,1 C 89 % 1017,5 hPa 0,0 l/m 2,6 km/h (1 Bft) O-SO 110 0 min 0,000 mm 0,0 UV-I 0 W/m -1,7 C -0,1 C 3,2 km/h (1 Bft) 94,74 %
17.03.2017 05:32 -0,1 C 89 % 1017,5 hPa 0,0 l/m 4,1 km/h (1 Bft) O-SO 110 0 min 0,000 mm 0,0 UV-I 0 W/m -1,7 C -0,1 C 4,8 km/h (1 Bft) 95,38 %
17.03.2017 05:34 -0,1 C 89 % 1017,6 hPa 0,0 l/m 3,0 km/h (1 Bft) O-SO 110 0 min 0,000 mm 0,0 UV-I 0 W/m -1,7 C -0,1 C 4,8 km/h (1 Bft) 94,74 %
17.03.2017 05:36 -0,2 C 89 % 1017,5 hPa 0,0 l/m 1,4 km/h (1 Bft) O-SO 110 0 min 0,000 mm 0,0 UV-I 0 W/m -1,8 C -0,2 C 3,2 km/h (1 Bft) 96,00 %
17.03.2017 05:38 -0,2 C 89 % 1017,6 hPa 0,0 l/m 2,9 km/h (1 Bft) O-SO 110 0 min 0,000 mm 0,0 UV-I 0 W/m -1,8 C -0,2 C 3,2 km/h (1 Bft) 96,00 %
17.03.2017 05:40 -0,2 C 89 % 1017,5 hPa 0,0 l/m 1,5 km/h (1 Bft) O-SO 110 0 min 0,000 mm 0,0 UV-I 0 W/m -1,8 C -0,2 C 3,2 km/h (1 Bft) 93,62 %
17.03.2017 05:42 -0,2 C 89 % 1017,5 hPa 0,0 l/m 0,7 km/h (0 Bft) O-SO 110 0 min 0,000 mm 0,0 UV-I 0 W/m -1,8 C -0,2 C 1,6 km/h (1 Bft) 97,37 %
17.03.2017 05:44 -0,3 C 89 % 1017,6 hPa 0,0 l/m 0,3 km/h (0 Bft) O-SO 110 0 min 0,000 mm 0,0 UV-I 0 W/m -1,9 C -0,3 C 1,6 km/h (1 Bft) 95,74 %
17.03.2017 05:46 -0,3 C 90 % 1017,5 hPa 0,0 l/m 1,9 km/h (1 Bft) O-SO 110 0 min 0,000 mm 0,0 UV-I 0 W/m -1,7 C -0,3 C 3,2 km/h (1 Bft) 94,00 %
17.03.2017 05:48 -0,2 C 90 % 1017,5 hPa 0,0 l/m 1,8 km/h (1 Bft) O-SO 110 0 min 0,000 mm 0,0 UV-I 0 W/m -1,6 C -0,2 C 3,2 km/h (1 Bft) 97,73 %
17.03.2017 05:50 -0,1 C 90 % 1017,6 hPa 0,0 l/m 1,6 km/h (1 Bft) O-SO 110 0 min 0,000 mm 0,0 UV-I 0 W/m -1,5 C -0,1 C 3,2 km/h (1 Bft) 96,00 %
17.03.2017 05:52 0,0 C 90 % 1017,6 hPa 0,0 l/m 2,0 km/h (1 Bft) O-SO 110 0 min 0,000 mm 0,0 UV-I 0 W/m -1,4 C 0,0 C 3,2 km/h (1 Bft) 95,74 %
17.03.2017 05:54 0,1 C 89 % 1017,6 hPa 0,0 l/m 1,9 km/h (1 Bft) O-SO 110 0 min 0,000 mm 0,0 UV-I 0 W/m -1,5 C 0,1 C 3,2 km/h (1 Bft) 96,00 %
17.03.2017 05:56 0,1 C 89 % 1017,6 hPa 0,0 l/m 2,1 km/h (1 Bft) O-SO 110 0 min 0,000 mm 0,0 UV-I 4 W/m -1,5 C 0,1 C 3,2 km/h (1 Bft) 97,87 %
17.03.2017 05:58 0,2 C 89 % 1017,7 hPa 0,0 l/m 1,6 km/h (1 Bft) O-SO 110 0 min 0,000 mm 0,0 UV-I 5 W/m -1,4 C 0,2 C 3,2 km/h (1 Bft) 95,24 %
17.03.2017 06:00 0,1 C 88 % 1017,6 hPa 0,0 l/m 2,2 km/h (1 Bft) O-SO 110 0 min 0,000 mm 0,0 UV-I 5 W/m -1,6 C 0,1 C 3,2 km/h (1 Bft) 98,08 %
17.03.2017 06:02 0,0 C 89 % 1017,6 hPa 0,0 l/m 3,4 km/h (1 Bft) O-SO 110 0 min 0,000 mm 0,0 UV-I 6 W/m -1,6 C 0,0 C 4,8 km/h (1 Bft) 97,22 %
17.03.2017 06:04 0,0 C 89 % 1017,5 hPa 0,0 l/m 2,5 km/h (1 Bft) O-SO 110 0 min 0,000 mm 0,0 UV-I 7 W/m -1,6 C 0,0 C 3,2 km/h (1 Bft) 98,11 %
17.03.2017 06:06 0,0 C 89 % 1017,6 hPa 0,0 l/m 2,5 km/h (1 Bft) O-SO 110 0 min 0,000 mm 0,0 UV-I 8 W/m -1,6 C 0,0 C 4,8 km/h (1 Bft) 98,11 %
17.03.2017 06:08 -0,1 C 88 % 1017,6 hPa 0,0 l/m 1,6 km/h (1 Bft) O-SO 110 0 min 0,000 mm 0,0 UV-I 9 W/m -1,8 C -0,1 C 3,2 km/h (1 Bft) 94,74 %
17.03.2017 06:10 -0,1 C 88 % 1017,7 hPa 0,0 l/m 1,5 km/h (1 Bft) O-SO 110 0 min 0,000 mm 0,0 UV-I 9 W/m -1,8 C -0,1 C 3,2 km/h (1 Bft) 95,74 %
17.03.2017 06:12 -0,1 C 88 % 1017,7 hPa 0,0 l/m 1,4 km/h (1 Bft) O-SO 110 0 min 0,000 mm 0,0 UV-I 9 W/m -1,8 C -0,1 C 3,2 km/h (1 Bft) 96,43 %
17.03.2017 06:14 -0,1 C 88 % 1017,7 hPa 0,0 l/m 1,0 km/h (0 Bft) O-SO 110 0 min 0,000 mm 0,0 UV-I 9 W/m -1,8 C -0,1 C 3,2 km/h (1 Bft) 100,00 %
17.03.2017 06:16 -0,1 C 89 % 1017,7 hPa 0,0 l/m 2,3 km/h (1 Bft) O-SO 110 0 min 0,000 mm 0,0 UV-I 11 W/m -1,7 C -0,1 C 3,2 km/h (1 Bft) 98,00 %
17.03.2017 06:18 -0,1 C 89 % 1017,8 hPa 0,0 l/m 1,7 km/h (1 Bft) O-SO 110 0 min 0,000 mm 0,0 UV-I 12 W/m -1,7 C -0,1 C 3,2 km/h (1 Bft) 96,00 %
17.03.2017 06:20 -0,2 C 88 % 1017,8 hPa 0,0 l/m 1,8 km/h (1 Bft) O-SO 110 0 min 0,000 mm 0,0 UV-I 15 W/m -1,9 C -0,2 C 3,2 km/h (1 Bft) 97,56 %
17.03.2017 06:22 -0,2 C 89 % 1017,7 hPa 0,0 l/m 1,0 km/h (0 Bft) O-SO 110 0 min 0,000 mm 0,0 UV-I 19 W/m -1,8 C -0,2 C 1,6 km/h (1 Bft) 96,00 %
17.03.2017 06:24 -0,1 C 89 % 1017,7 hPa 0,0 l/m 1,3 km/h (1 Bft) O-SO 110 2 min 0,000 mm 0,0 UV-I 22 W/m -1,7 C -0,1 C 3,2 km/h (1 Bft) 97,87 %
17.03.2017 06:26 -0,1 C 89 % 1017,6 hPa 0,0 l/m 0,6 km/h (0 Bft) O-SO 110 2 min 0,000 mm 0,0 UV-I 26 W/m -1,7 C -0,1 C 1,6 km/h (1 Bft) 100,00 %
17.03.2017 06:28 -0,1 C 89 % 1017,5 hPa 0,0 l/m 0,6 km/h (0 Bft) O-SO 110 2 min 0,000 mm 0,0 UV-I 30 W/m -1,7 C -0,1 C 1,6 km/h (1 Bft) 98,21 %
17.03.2017 06:30 -0,1 C 89 % 1017,5 hPa 0,0 l/m 1,7 km/h (1 Bft) O-SO 110 2 min 0,000 mm 0,0 UV-I 33 W/m -1,7 C -0,1 C 3,2 km/h (1 Bft) 97,37 %
17.03.2017 06:32 0,1 C 89 % 1017,4 hPa 0,0 l/m 2,1 km/h (1 Bft) O-SO 110 2 min 0,000 mm 0,0 UV-I 38 W/m -1,5 C 0,1 C 3,2 km/h (1 Bft) 92,45 %
17.03.2017 06:34 0,4 C 89 % 1017,4 hPa 0,0 l/m 2,8 km/h (1 Bft) O-SO 110 2 min 0,000 mm 0,0 UV-I 44 W/m -1,2 C 0,4 C 4,8 km/h (1 Bft) 96,23 %
17.03.2017 06:36 0,5 C 87 % 1017,4 hPa 0,0 l/m 3,3 km/h (1 Bft) O-SO 110 2 min 0,000 mm 0,0 UV-I 47 W/m -1,4 C 0,5 C 4,8 km/h (1 Bft) 97,44 %
17.03.2017 06:38 0,4 C 87 % 1017,5 hPa 0,0 l/m 3,8 km/h (1 Bft) O-SO 111 2 min 0,000 mm 0,0 UV-I 50 W/m -1,5 C 0,4 C 4,8 km/h (1 Bft) 96,15 %
17.03.2017 06:40 0,3 C 87 % 1017,5 hPa 0,0 l/m 3,7 km/h (1 Bft) O-SO 111 2 min 0,000 mm 0,0 UV-I 52 W/m -1,6 C 0,3 C 4,8 km/h (1 Bft) 98,00 %
17.03.2017 06:42 0,2 C 87 % 1017,5 hPa 0,0 l/m 4,2 km/h (1 Bft) O-SO 111 2 min 0,000 mm 0,0 UV-I 55 W/m -1,7 C 0,2 C 4,8 km/h (1 Bft) 100,00 %
17.03.2017 06:44 0,2 C 88 % 1017,4 hPa 0,0 l/m 4,1 km/h (1 Bft) O-SO 113 2 min 0,000 mm 0,0 UV-I 57 W/m -1,5 C 0,2 C 6,4 km/h (2 Bft) 97,44 %
17.03.2017 06:46 0,2 C 88 % 1017,5 hPa 0,0 l/m 3,7 km/h (1 Bft) O-SO 113 2 min 0,000 mm 0,0 UV-I 62 W/m -1,5 C 0,2 C 4,8 km/h (1 Bft) 95,45 %
17.03.2017 06:48 0,2 C 88 % 1017,4 hPa 0,0 l/m 3,3 km/h (1 Bft) O-SO 113 2 min 0,000 mm 0,0 UV-I 64 W/m -1,5 C 0,2 C 6,4 km/h (2 Bft) 98,11 %
17.03.2017 06:50 0,2 C 88 % 1017,4 hPa 0,0 l/m 1,5 km/h (1 Bft) O-SO 113 2 min 0,000 mm 0,0 UV-I 66 W/m -1,5 C 0,2 C 3,2 km/h (1 Bft) 98,11 %
17.03.2017 06:52 0,2 C 88 % 1017,4 hPa 0,0 l/m 0,4 km/h (0 Bft) O-SO 113 2 min 0,000 mm 0,0 UV-I 67 W/m -1,5 C 0,2 C 1,6 km/h (1 Bft) 97,37 %
17.03.2017 06:54 0,2 C 88 % 1017,4 hPa 0,0 l/m 1,9 km/h (1 Bft) O-SO 113 2 min 0,000 mm 0,0 UV-I 69 W/m -1,5 C 0,2 C 3,2 km/h (1 Bft) 100,00 %
17.03.2017 06:56 0,3 C 88 % 1017,5 hPa 0,0 l/m 1,8 km/h (1 Bft) O-SO 113 2 min 0,000 mm 0,0 UV-I 72 W/m -1,4 C 0,3 C 3,2 km/h (1 Bft) 94,74 %
17.03.2017 06:58 0,4 C 89 % 1017,5 hPa 0,0 l/m 1,3 km/h (1 Bft) O-SO 113 2 min 0,000 mm 0,0 UV-I 73 W/m -1,2 C 0,4 C 1,6 km/h (1 Bft) 96,00 %
17.03.2017 07:00 0,6 C 88 % 1017,5 hPa 0,0 l/m 1,1 km/h (1 Bft) O-SO 113 2 min 0,025 mm 0,0 UV-I 77 W/m -1,2 C 0,6 C 1,6 km/h (1 Bft) 97,37 %
17.03.2017 07:02 0,7 C 88 % 1017,4 hPa 0,0 l/m 1,4 km/h (1 Bft) O-SO 113 2 min 0,000 mm 0,0 UV-I 77 W/m -1,1 C 0,7 C 3,2 km/h (1 Bft) 100,00 %
17.03.2017 07:04 0,8 C 87 % 1017,4 hPa 0,0 l/m 2,6 km/h (1 Bft) O-SO 113 2 min 0,000 mm 0,0 UV-I 79 W/m -1,1 C 0,8 C 4,8 km/h (1 Bft) 96,23 %
17.03.2017 07:06 0,8 C 87 % 1017,5 hPa 0,0 l/m 3,2 km/h (1 Bft) O-SO 113 2 min 0,000 mm 0,0 UV-I 84 W/m -1,1 C 0,8 C 4,8 km/h (1 Bft) 97,87 %
17.03.2017 07:08 0,8 C 87 % 1017,4 hPa 0,0 l/m 2,1 km/h (1 Bft) O-SO 113 2 min 0,000 mm 0,0 UV-I 98 W/m -1,1 C 0,8 C 3,2 km/h (1 Bft) 100,00 %
17.03.2017 07:10 0,8 C 87 % 1017,4 hPa 0,0 l/m 2,9 km/h (1 Bft) O-SO 113 2 min 0,000 mm 0,0 UV-I 108 W/m -1,1 C 0,8 C 4,8 km/h (1 Bft) 94,00 %
17.03.2017 07:12 1,0 C 86 % 1017,4 hPa 0,0 l/m 0,5 km/h (0 Bft) O-SO 113 2 min 0,000 mm 0,0 UV-I 111 W/m -1,1 C 1,0 C 1,6 km/h (1 Bft) 94,74 %
17.03.2017 07:14 1,1 C 87 % 1017,4 hPa 0,0 l/m 1,1 km/h (1 Bft) O-SO 113 2 min 0,000 mm 0,0 UV-I 116 W/m -0,8 C 1,1 C 3,2 km/h (1 Bft) 100,00 %
17.03.2017 07:16 1,2 C 86 % 1017,4 hPa 0,0 l/m 0,7 km/h (0 Bft) O-SO 113 2 min 0,000 mm 0,0 UV-I 121 W/m -0,9 C 1,2 C 3,2 km/h (1 Bft) 100,00 %
17.03.2017 07:18 1,4 C 86 % 1017,4 hPa 0,0 l/m 0,1 km/h (0 Bft) O-SO 113 2 min 0,000 mm 0,0 UV-I 129 W/m -0,7 C 1,4 C 1,6 km/h (1 Bft) 97,62 %
17.03.2017 07:20 1,7 C 85 % 1017,3 hPa 0,0 l/m 0,0 km/h (0 Bft) O-SO 113 2 min 0,000 mm 0,0 UV-I 138 W/m -0,5 C 1,7 C 0,0 km/h (0 Bft) 97,87 %
17.03.2017 07:22 1,8 C 84 % 1017,3 hPa 0,0 l/m 0,0 km/h (0 Bft) O-SO 113 2 min 0,000 mm 0,0 UV-I 142 W/m -0,6 C 1,8 C 0,0 km/h (0 Bft) 98,08 %
17.03.2017 07:24 2,0 C 84 % 1017,3 hPa 0,0 l/m 0,4 km/h (0 Bft) O-SO 113 2 min 0,000 mm 0,0 UV-I 151 W/m -0,4 C 2,0 C 1,6 km/h (1 Bft) 97,44 %
17.03.2017 07:26 2,2 C 83 % 1017,4 hPa 0,0 l/m 0,2 km/h (0 Bft) O-SO 113 2 min 0,000 mm 0,0 UV-I 157 W/m -0,4 C 2,2 C 3,2 km/h (1 Bft) 100,00 %
17.03.2017 07:28 2,2 C 83 % 1017,4 hPa 0,0 l/m 2,1 km/h (1 Bft) O-SO 113 2 min 0,000 mm 0,0 UV-I 157 W/m -0,4 C 2,2 C 3,2 km/h (1 Bft) 100,00 %
17.03.2017 07:30 2,0 C 82 % 1017,4 hPa 0,0 l/m 1,2 km/h (1 Bft) O-SO 113 2 min 0,000 mm 0,0 UV-I 166 W/m -0,7 C 2,0 C 1,6 km/h (1 Bft) 100,00 %
17.03.2017 07:32 1,9 C 83 % 1017,4 hPa 0,0 l/m 0,6 km/h (0 Bft) O-SO 113 2 min 0,000 mm 0,0 UV-I 173 W/m -0,7 C 1,9 C 3,2 km/h (1 Bft) 96,23 %
17.03.2017 07:34 2,0 C 84 % 1017,3 hPa 0,0 l/m 0,0 km/h (0 Bft) O-SO 113 2 min 0,000 mm 0,0 UV-I 176 W/m -0,4 C 2,0 C 0,0 km/h (0 Bft) 98,00 %
17.03.2017 07:36 2,1 C 83 % 1017,3 hPa 0,0 l/m 0,0 km/h (0 Bft) O-SO 113 2 min 0,000 mm 0,0 UV-I 167 W/m -0,5 C 2,1 C 0,0 km/h (0 Bft) 94,74 %
17.03.2017 07:38 2,3 C 83 % 1017,2 hPa 0,0 l/m 0,5 km/h (0 Bft) O-SO 113 2 min 0,000 mm 0,0 UV-I 164 W/m -0,3 C 2,3 C 3,2 km/h (1 Bft) 100,00 %
17.03.2017 07:40 2,4 C 82 % 1017,2 hPa 0,0 l/m 0,1 km/h (0 Bft) O-SO 113 2 min 0,000 mm 0,0 UV-I 195 W/m -0,4 C 2,4 C 1,6 km/h (1 Bft) 97,87 %
17.03.2017 07:42 2,7 C 82 % 1017,2 hPa 0,0 l/m 1,4 km/h (1 Bft) O-SO 113 2 min 0,000 mm 0,0 UV-I 204 W/m -0,1 C 2,7 C 3,2 km/h (1 Bft) 98,00 %
17.03.2017 07:44 2,9 C 81 % 1017,2 hPa 0,0 l/m 2,3 km/h (1 Bft) O-SO 113 2 min 0,000 mm 0,0 UV-I 213 W/m -0,0 C 2,9 C 3,2 km/h (1 Bft) 100,00 %
17.03.2017 07:46 3,1 C 79 % 1017,1 hPa 0,0 l/m 2,6 km/h (1 Bft) O-SO 113 2 min 0,000 mm 0,0 UV-I 222 W/m -0,2 C 3,1 C 3,2 km/h (1 Bft) 100,00 %
17.03.2017 07:48 3,2 C 79 % 1017,2 hPa 0,0 l/m 2,8 km/h (1 Bft) S 186 2 min 0,000 mm 0,0 UV-I 229 W/m -0,1 C 3,2 C 8,0 km/h (2 Bft) 90,24 %
17.03.2017 07:50 3,3 C 78 % 1017,2 hPa 0,0 l/m 4,3 km/h (1 Bft) S 189 2 min 0,000 mm 0,0 UV-I 235 W/m -0,2 C 3,3 C 6,4 km/h (2 Bft) 98,00 %
17.03.2017 07:52 3,4 C 77 % 1017,1 hPa 0,0 l/m 4,0 km/h (1 Bft) S 189 2 min 0,000 mm 0,0 UV-I 244 W/m -0,2 C 3,4 C 6,4 km/h (2 Bft) 98,00 %
17.03.2017 07:54 3,7 C 77 % 1017,1 hPa 0,0 l/m 1,8 km/h (1 Bft) S 189 2 min 0,000 mm 0,0 UV-I 251 W/m 0,1 C 3,7 C 4,8 km/h (1 Bft) 92,31 %
17.03.2017 07:56 3,8 C 76 % 1017,2 hPa 0,0 l/m 0,6 km/h (0 Bft) S 189 2 min 0,000 mm 0,0 UV-I 258 W/m -0,0 C 3,8 C 1,6 km/h (1 Bft) 96,36 %
17.03.2017 07:58 3,9 C 73 % 1017,3 hPa 0,0 l/m 1,2 km/h (1 Bft) S 189 2 min 0,000 mm 0,0 UV-I 263 W/m -0,5 C 3,9 C 1,6 km/h (1 Bft) 96,00 %
17.03.2017 08:00 4,0 C 73 % 1017,3 hPa 0,0 l/m 2,3 km/h (1 Bft) S 189 2 min 0,077 mm 0,0 UV-I 270 W/m -0,4 C 4,0 C 3,2 km/h (1 Bft) 97,44 %
17.03.2017 08:02 4,2 C 74 % 1017,2 hPa 0,0 l/m 0,4 km/h (0 Bft) S 189 2 min 0,000 mm 0,0 UV-I 279 W/m -0,0 C 4,2 C 1,6 km/h (1 Bft) 96,30 %
17.03.2017 08:04 4,3 C 73 % 1017,2 hPa 0,0 l/m 0,2 km/h (0 Bft) S 189 2 min 0,000 mm 0,0 UV-I 285 W/m -0,1 C 4,3 C 1,6 km/h (1 Bft) 96,00 %
17.03.2017 08:06 4,4 C 72 % 1017,2 hPa 0,0 l/m 0,0 km/h (0 Bft) S 189 2 min 0,000 mm 0,0 UV-I 279 W/m -0,2 C 4,4 C 0,0 km/h (0 Bft) 97,14 %
17.03.2017 08:08 4,6 C 71 % 1017,1 hPa 0,0 l/m 0,6 km/h (0 Bft) S 189 2 min 0,000 mm 0,5 UV-I 284 W/m -0,2 C 4,6 C 1,6 km/h (1 Bft) 96,00 %
17.03.2017 08:10 4,6 C 72 % 1017,0 hPa 0,0 l/m 1,2 km/h (1 Bft) S 189 2 min 0,000 mm 0,5 UV-I 278 W/m -0,0 C 4,6 C 1,6 km/h (1 Bft) 97,73 %
17.03.2017 08:12 4,8 C 72 % 1017,0 hPa 0,0 l/m 0,9 km/h (0 Bft) S 189 2 min 0,000 mm 0,5 UV-I 274 W/m 0,2 C 4,8 C 3,2 km/h (1 Bft) 95,83 %
17.03.2017 08:14 5,0 C 72 % 1017,1 hPa 0,0 l/m 0,0 km/h (0 Bft) S 189 2 min 0,000 mm 0,5 UV-I 241 W/m 0,4 C 5,0 C 1,6 km/h (1 Bft) 98,00 %
17.03.2017 08:16 5,1 C 72 % 1017,1 hPa 0,0 l/m 0,0 km/h (0 Bft) S 189 2 min 0,000 mm 0,5 UV-I 244 W/m 0,5 C 5,1 C 1,6 km/h (1 Bft) 94,34 %
17.03.2017 08:18 5,2 C 73 % 1017,0 hPa 0,0 l/m 0,0 km/h (0 Bft) S 189 2 min 0,000 mm 0,5 UV-I 275 W/m 0,8 C 5,2 C 0,0 km/h (0 Bft) 94,74 %
17.03.2017 08:20 5,2 C 75 % 1017,1 hPa 0,0 l/m 0,7 km/h (0 Bft) S 189 2 min 0,000 mm 0,6 UV-I 286 W/m 1,1 C 5,2 C 3,2 km/h (1 Bft) 96,00 %
17.03.2017 08:22 5,2 C 74 % 1017,1 hPa 0,0 l/m 0,5 km/h (0 Bft) S 189 2 min 0,000 mm 0,6 UV-I 285 W/m 1,0 C 5,2 C 3,2 km/h (1 Bft) 100,00 %
17.03.2017 08:24 5,2 C 76 % 1017,1 hPa 0,0 l/m 0,7 km/h (0 Bft) S 189 2 min 0,000 mm 0,6 UV-I 301 W/m 1,3 C 5,2 C 1,6 km/h (1 Bft) 100,00 %
17.03.2017 08:26 5,3 C 72 % 1017,1 hPa 0,0 l/m 0,3 km/h (0 Bft) S 189 2 min 0,000 mm 0,6 UV-I 310 W/m 0,7 C 5,3 C 1,6 km/h (1 Bft) 100,00 %
17.03.2017 08:28 5,3 C 72 % 1017,1 hPa 0,0 l/m 0,5 km/h (0 Bft) S 189 2 min 0,000 mm 0,6 UV-I 305 W/m 0,7 C 5,3 C 1,6 km/h (1 Bft) 98,00 %
17.03.2017 08:30 5,4 C 73 % 1017,1 hPa 0,0 l/m 0,2 km/h (0 Bft) S 189 2 min 0,000 mm 0,6 UV-I 323 W/m 1,0 C 5,4 C 1,6 km/h (1 Bft) 97,37 %
17.03.2017 08:32 5,5 C 73 % 1017,1 hPa 0,0 l/m 0,2 km/h (0 Bft) S 189 2 min 0,000 mm 0,7 UV-I 327 W/m 1,1 C 5,5 C 1,6 km/h (1 Bft) 100,00 %
17.03.2017 08:34 5,6 C 74 % 1017,1 hPa 0,0 l/m 0,4 km/h (0 Bft) S 189 2 min 0,000 mm 0,7 UV-I 344 W/m 1,3 C 5,6 C 1,6 km/h (1 Bft) 100,00 %
17.03.2017 08:36 5,8 C 73 % 1017,0 hPa 0,0 l/m 0,0 km/h (0 Bft) S 189 2 min 0,000 mm 0,7 UV-I 355 W/m 1,3 C 5,8 C 0,0 km/h (0 Bft) 100,00 %
17.03.2017 08:38 5,9 C 73 % 1017,0 hPa 0,0 l/m 0,2 km/h (0 Bft) S 189 2 min 0,000 mm 0,8 UV-I 371 W/m 1,4 C 5,9 C 1,6 km/h (1 Bft) 95,74 %
17.03.2017 08:40 6,0 C 73 % 1017,0 hPa 0,0 l/m 0,3 km/h (0 Bft) S 189 2 min 0,000 mm 0,8 UV-I 373 W/m 1,5 C 6,0 C 1,6 km/h (1 Bft) 98,00 %
17.03.2017 08:42 6,2 C 72 % 1017,0 hPa 0,0 l/m 0,5 km/h (0 Bft) S 189 2 min 0,000 mm 0,8 UV-I 381 W/m 1,5 C 6,2 C 1,6 km/h (1 Bft) 100,00 %
17.03.2017 08:44 6,3 C 73 % 1017,0 hPa 0,0 l/m 0,4 km/h (0 Bft) S 189 2 min 0,000 mm 0,8 UV-I 384 W/m 1,8 C 6,3 C 1,6 km/h (1 Bft) 98,21 %
17.03.2017 08:46 6,3 C 70 % 1017,0 hPa 0,0 l/m 2,3 km/h (1 Bft) S-SW 194 2 min 0,000 mm 0,9 UV-I 394 W/m 1,2 C 6,3 C 4,8 km/h (1 Bft) 96,00 %
17.03.2017 08:48 6,3 C 70 % 1017,0 hPa 0,0 l/m 1,6 km/h (1 Bft) S-SW 194 2 min 0,000 mm 0,9 UV-I 403 W/m 1,2 C 6,3 C 3,2 km/h (1 Bft) 97,14 %
17.03.2017 08:50 6,2 C 70 % 1016,9 hPa 0,0 l/m 2,1 km/h (1 Bft) S-SW 194 2 min 0,000 mm 0,9 UV-I 385 W/m 1,1 C 6,2 C 4,8 km/h (1 Bft) 94,34 %
17.03.2017 08:52 6,2 C 69 % 1017,0 hPa 0,0 l/m 1,2 km/h (1 Bft) S-SW 194 2 min 0,000 mm 0,9 UV-I 390 W/m 0,9 C 6,2 C 3,2 km/h (1 Bft) 94,34 %
17.03.2017 08:54 6,3 C 69 % 1016,9 hPa 0,0 l/m 0,5 km/h (0 Bft) S-SW 194 2 min 0,000 mm 0,9 UV-I 387 W/m 1,0 C 6,3 C 1,6 km/h (1 Bft) 94,74 %
17.03.2017 08:56 6,4 C 69 % 1017,0 hPa 0,0 l/m 0,4 km/h (0 Bft) S-SW 194 2 min 0,000 mm 1,0 UV-I 401 W/m 1,1 C 6,4 C 1,6 km/h (1 Bft) 96,00 %
17.03.2017 08:58 6,5 C 69 % 1016,9 hPa 0,0 l/m 0,0 km/h (0 Bft) S-SW 194 2 min 0,000 mm 1,0 UV-I 410 W/m 1,2 C 6,5 C 1,6 km/h (1 Bft) 97,37 %
17.03.2017 09:00 6,8 C 70 % 1016,9 hPa 0,0 l/m 0,4 km/h (0 Bft) S-SW 194 2 min 0,127 mm 1,0 UV-I 417 W/m 1,7 C 6,8 C 3,2 km/h (1 Bft) 94,64 %
17.03.2017 09:02 6,9 C 68 % 1016,9 hPa 0,0 l/m 1,0 km/h (0 Bft) S-SW 194 2 min 0,000 mm 1,0 UV-I 408 W/m 1,4 C 6,9 C 1,6 km/h (1 Bft) 95,74 %
17.03.2017 09:04 7,1 C 66 % 1016,9 hPa 0,0 l/m 1,9 km/h (1 Bft) S-SW 194 2 min 0,000 mm 1,1 UV-I 442 W/m 1,2 C 7,1 C 3,2 km/h (1 Bft) 97,73 %
17.03.2017 09:06 7,2 C 66 % 1016,9 hPa 0,0 l/m 2,1 km/h (1 Bft) S-SW 194 2 min 0,000 mm 1,1 UV-I 444 W/m 1,3 C 7,2 C 3,2 km/h (1 Bft) 95,74 %
17.03.2017 09:08 7,3 C 66 % 1016,8 hPa 0,0 l/m 0,6 km/h (0 Bft) S-SW 194 2 min 0,000 mm 1,1 UV-I 424 W/m 1,4 C 7,3 C 1,6 km/h (1 Bft) 96,23 %
17.03.2017 09:10 7,3 C 65 % 1016,9 hPa 0,0 l/m 0,6 km/h (0 Bft) S-SW 194 2 min 0,000 mm 1,1 UV-I 428 W/m 1,2 C 7,3 C 1,6 km/h (1 Bft) 97,37 %
17.03.2017 09:12 7,2 C 65 % 1016,8 hPa 0,0 l/m 0,0 km/h (0 Bft) S-SW 194 2 min 0,000 mm 1,1 UV-I 441 W/m 1,1 C 7,2 C 0,0 km/h (0 Bft) 94,64 %
17.03.2017 09:14 7,4 C 67 % 1016,8 hPa 0,0 l/m 1,0 km/h (0 Bft) S-SW 194 2 min 0,000 mm 1,2 UV-I 452 W/m 1,7 C 7,4 C 3,2 km/h (1 Bft) 100,00 %
17.03.2017 09:16 7,7 C 66 % 1016,8 hPa 0,0 l/m 2,5 km/h (1 Bft) S-SW 194 2 min 0,000 mm 1,2 UV-I 454 W/m 1,8 C 7,7 C 4,8 km/h (1 Bft) 94,00 %
17.03.2017 09:18 7,8 C 67 % 1016,7 hPa 0,0 l/m 1,2 km/h (1 Bft) S-SW 194 2 min 0,000 mm 1,2 UV-I 459 W/m 2,1 C 7,8 C 3,2 km/h (1 Bft) 94,00 %
17.03.2017 09:20 7,9 C 66 % 1016,8 hPa 0,0 l/m 2,9 km/h (1 Bft) O-SO 103 2 min 0,000 mm 1,2 UV-I 465 W/m 1,9 C 7,9 C 6,4 km/h (2 Bft) 97,22 %
17.03.2017 09:22 8,0 C 67 % 1016,7 hPa 0,0 l/m 1,7 km/h (1 Bft) O-SO 103 2 min 0,000 mm 1,2 UV-I 466 W/m 2,3 C 8,0 C 3,2 km/h (1 Bft) 96,23 %
17.03.2017 09:24 8,2 C 69 % 1016,7 hPa 0,0 l/m 3,4 km/h (1 Bft) O-NO 66 2 min 0,000 mm 1,3 UV-I 449 W/m 2,9 C 8,2 C 4,8 km/h (1 Bft) 97,73 %
17.03.2017 09:26 8,3 C 69 % 1016,6 hPa 0,0 l/m 1,6 km/h (1 Bft) O-NO 66 2 min 0,000 mm 1,2 UV-I 452 W/m 3,0 C 8,3 C 4,8 km/h (1 Bft) 92,45 %
17.03.2017 09:28 8,3 C 67 % 1016,6 hPa 0,0 l/m 0,9 km/h (0 Bft) O-NO 66 2 min 0,000 mm 1,3 UV-I 475 W/m 2,5 C 8,3 C 3,2 km/h (1 Bft) 98,00 %
17.03.2017 09:30 8,2 C 68 % 1016,6 hPa 0,0 l/m 2,0 km/h (1 Bft) O-NO 66 2 min 0,000 mm 1,3 UV-I 482 W/m 2,7 C 8,2 C 4,8 km/h (1 Bft) 94,29 %
17.03.2017 09:32 8,4 C 69 % 1016,5 hPa 0,0 l/m 4,0 km/h (1 Bft) O-NO 63 2 min 0,000 mm 1,3 UV-I 477 W/m 3,0 C 8,4 C 6,4 km/h (2 Bft) 98,21 %
17.03.2017 09:34 8,3 C 68 % 1016,5 hPa 0,0 l/m 4,8 km/h (1 Bft) NO 46 2 min 0,000 mm 1,4 UV-I 483 W/m 2,7 C 8,3 C 6,4 km/h (2 Bft) 94,00 %
17.03.2017 09:36 8,3 C 69 % 1016,5 hPa 0,0 l/m 4,8 km/h (1 Bft) NO 46 2 min 0,000 mm 1,4 UV-I 487 W/m 3,0 C 8,3 C 6,4 km/h (2 Bft) 95,45 %
17.03.2017 09:38 8,4 C 67 % 1016,5 hPa 0,0 l/m 2,6 km/h (1 Bft) NO 46 2 min 0,000 mm 1,4 UV-I 506 W/m 2,6 C 8,4 C 4,8 km/h (1 Bft) 90,00 %
17.03.2017 09:40 8,6 C 68 % 1016,5 hPa 0,0 l/m 2,4 km/h (1 Bft) NO 46 2 min 0,000 mm 1,4 UV-I 504 W/m 3,0 C 8,6 C 3,2 km/h (1 Bft) 95,74 %
17.03.2017 09:42 8,6 C 67 % 1016,5 hPa 0,0 l/m 2,4 km/h (1 Bft) NO 46 2 min 0,000 mm 1,5 UV-I 500 W/m 2,8 C 8,6 C 4,8 km/h (1 Bft) 86,96 %
17.03.2017 09:44 8,7 C 64 % 1016,5 hPa 0,0 l/m 2,5 km/h (1 Bft) NO 46 2 min 0,000 mm 1,5 UV-I 490 W/m 2,3 C 8,7 C 3,2 km/h (1 Bft) 94,92 %
17.03.2017 09:46 8,8 C 63 % 1016,5 hPa 0,0 l/m 3,3 km/h (1 Bft) NO 45 2 min 0,000 mm 1,5 UV-I 501 W/m 2,2 C 8,8 C 6,4 km/h (2 Bft) 92,86 %
17.03.2017 09:48 8,8 C 62 % 1016,4 hPa 0,0 l/m 2,5 km/h (1 Bft) NO 45 2 min 0,000 mm 1,5 UV-I 500 W/m 1,9 C 8,8 C 4,8 km/h (1 Bft) 94,74 %
17.03.2017 09:50 8,9 C 63 % 1016,4 hPa 0,0 l/m 2,3 km/h (1 Bft) NO 45 2 min 0,000 mm 1,5 UV-I 508 W/m 2,2 C 8,9 C 3,2 km/h (1 Bft) 94,34 %
17.03.2017 09:52 9,2 C 61 % 1016,3 hPa 0,0 l/m 0,4 km/h (0 Bft) NO 45 2 min 0,000 mm 1,5 UV-I 497 W/m 2,1 C 9,2 C 1,6 km/h (1 Bft) 96,00 %
17.03.2017 09:54 9,2 C 62 % 1016,4 hPa 0,0 l/m 2,0 km/h (1 Bft) NO 46 2 min 0,000 mm 1,6 UV-I 505 W/m 2,3 C 9,2 C 4,8 km/h (1 Bft) 97,44 %
17.03.2017 09:56 9,3 C 62 % 1016,4 hPa 0,0 l/m 2,9 km/h (1 Bft) NO 46 2 min 0,000 mm 1,6 UV-I 495 W/m 2,4 C 9,3 C 4,8 km/h (1 Bft) 96,00 %
17.03.2017 09:58 9,4 C 62 % 1016,3 hPa 0,0 l/m 1,8 km/h (1 Bft) NO 45 2 min 0,000 mm 1,6 UV-I 517 W/m 2,5 C 9,4 C 3,2 km/h (1 Bft) 96,15 %
17.03.2017 10:00 9,3 C 62 % 1016,3 hPa 0,0 l/m 1,3 km/h (1 Bft) NO 46 2 min 0,000 mm 1,7 UV-I 517 W/m 2,4 C 9,3 C 3,2 km/h (1 Bft) 97,22 %
17.03.2017 10:02 9,3 C 59 % 1016,3 hPa 0,0 l/m 3,0 km/h (1 Bft) NO 46 2 min 0,228 mm 1,7 UV-I 530 W/m 1,7 C 9,3 C 4,8 km/h (1 Bft) 98,11 %
17.03.2017 10:04 9,6 C 59 % 1016,3 hPa 0,0 l/m 2,2 km/h (1 Bft) NO 46 2 min 0,000 mm 1,7 UV-I 528 W/m 2,0 C 9,6 C 3,2 km/h (1 Bft) 100,00 %
17.03.2017 10:06 9,6 C 58 % 1016,3 hPa 0,0 l/m 1,2 km/h (1 Bft) NO 48 2 min 0,000 mm 1,7 UV-I 540 W/m 1,8 C 9,6 C 4,8 km/h (1 Bft) 100,00 %
17.03.2017 10:08 9,5 C 58 % 1016,2 hPa 0,0 l/m 2,0 km/h (1 Bft) NO 48 2 min 0,000 mm 1,8 UV-I 554 W/m 1,7 C 9,5 C 3,2 km/h (1 Bft) 100,00 %
17.03.2017 10:10 9,6 C 58 % 1016,2 hPa 0,0 l/m 2,9 km/h (1 Bft) O-NO 63 2 min 0,000 mm 1,8 UV-I 548 W/m 1,8 C 9,6 C 4,8 km/h (1 Bft) 98,21 %
17.03.2017 10:12 9,7 C 56 % 1016,2 hPa 0,0 l/m 2,3 km/h (1 Bft) O-NO 63 2 min 0,000 mm 1,8 UV-I 555 W/m 1,4 C 9,7 C 4,8 km/h (1 Bft) 100,00 %
17.03.2017 10:14 10,1 C 57 % 1016,2 hPa 0,0 l/m 1,8 km/h (1 Bft) O-NO 62 2 min 0,000 mm 1,8 UV-I 560 W/m 2,0 C 10,1 C 3,2 km/h (1 Bft) 97,37 %
17.03.2017 10:16 10,2 C 56 % 1016,2 hPa 0,0 l/m 3,2 km/h (1 Bft) O-NO 65 2 min 0,000 mm 1,9 UV-I 564 W/m 1,8 C 10,2 C 8,0 km/h (2 Bft) 100,00 %
17.03.2017 10:18 10,3 C 55 % 1016,2 hPa 0,0 l/m 4,5 km/h (1 Bft) O 89 2 min 0,000 mm 1,9 UV-I 571 W/m 1,7 C 10,3 C 6,4 km/h (2 Bft) 96,43 %
17.03.2017 10:20 10,3 C 55 % 1016,2 hPa 0,0 l/m 3,3 km/h (1 Bft) O-NO 77 2 min 0,000 mm 1,7 UV-I 550 W/m 1,7 C 10,3 C 6,4 km/h (2 Bft) 100,00 %
17.03.2017 10:22 10,2 C 55 % 1016,1 hPa 0,0 l/m 0,6 km/h (0 Bft) O-NO 77 2 min 0,000 mm 1,9 UV-I 378 W/m 1,6 C 10,2 C 1,6 km/h (1 Bft) 97,87 %
17.03.2017 10:24 10,3 C 56 % 1016,0 hPa 0,0 l/m 0,3 km/h (0 Bft) O-NO 77 2 min 0,000 mm 1,9 UV-I 578 W/m 1,9 C 10,3 C 1,6 km/h (1 Bft) 98,11 %
17.03.2017 10:26 10,4 C 56 % 1016,0 hPa 0,0 l/m 0,4 km/h (0 Bft) O-NO 77 2 min 0,000 mm 1,9 UV-I 580 W/m 2,0 C 10,4 C 1,6 km/h (1 Bft) 100,00 %
17.03.2017 10:28 10,7 C 58 % 1016,0 hPa 0,0 l/m 2,0 km/h (1 Bft) O-NO 77 2 min 0,000 mm 1,8 UV-I 425 W/m 2,8 C 10,7 C 3,2 km/h (1 Bft) 97,37 %
17.03.2017 10:30 10,8 C 57 % 1016,0 hPa 0,0 l/m 0,6 km/h (0 Bft) O-NO 77 2 min 0,000 mm 2,0 UV-I 543 W/m 2,6 C 10,8 C 3,2 km/h (1 Bft) 100,00 %
17.03.2017 10:32 11,0 C 57 % 1016,0 hPa 0,0 l/m 0,7 km/h (0 Bft) O-NO 73 2 min 0,000 mm 2,1 UV-I 573 W/m 2,8 C 11,0 C 3,2 km/h (1 Bft) 98,00 %
17.03.2017 10:34 11,1 C 57 % 1016,0 hPa 0,0 l/m 1,1 km/h (1 Bft) O-NO 72 2 min 0,000 mm 2,1 UV-I 588 W/m 2,9 C 11,1 C 4,8 km/h (1 Bft) 97,87 %
17.03.2017 10:36 11,2 C 59 % 1016,0 hPa 0,0 l/m 3,1 km/h (1 Bft) O-NO 72 2 min 0,000 mm 2,1 UV-I 579 W/m 3,5 C 11,2 C 4,8 km/h (1 Bft) 97,62 %
17.03.2017 10:38 11,4 C 58 % 1015,9 hPa 0,0 l/m 1,5 km/h (1 Bft) O-NO 67 2 min 0,000 mm 2,2 UV-I 595 W/m 3,4 C 11,4 C 4,8 km/h (1 Bft) 95,74 %
17.03.2017 10:40 11,4 C 59 % 1015,9 hPa 0,0 l/m 0,5 km/h (0 Bft) O-NO 67 2 min 0,000 mm 2,2 UV-I 601 W/m 3,7 C 11,4 C 1,6 km/h (1 Bft) 100,00 %
17.03.2017 10:42 11,6 C 60 % 1015,9 hPa 0,0 l/m 0,6 km/h (0 Bft) O-NO 67 2 min 0,000 mm 2,2 UV-I 609 W/m 4,1 C 11,6 C 1,6 km/h (1 Bft) 97,56 %
17.03.2017 10:44 11,8 C 59 % 1015,8 hPa 0,0 l/m 1,1 km/h (1 Bft) O-NO 67 2 min 0,000 mm 2,2 UV-I 609 W/m 4,1 C 11,8 C 3,2 km/h (1 Bft) 100,00 %
17.03.2017 10:46 11,7 C 57 % 1015,8 hPa 0,0 l/m 2,7 km/h (1 Bft) O-NO 64 2 min 0,000 mm 2,3 UV-I 596 W/m 3,5 C 11,7 C 4,8 km/h (1 Bft) 100,00 %
17.03.2017 10:48 11,7 C 57 % 1015,8 hPa 0,0 l/m 3,7 km/h (1 Bft) O-NO 61 2 min 0,000 mm 2,3 UV-I 591 W/m 3,5 C 11,7 C 4,8 km/h (1 Bft) 97,73 %
17.03.2017 10:50 11,8 C 60 % 1015,8 hPa 0,0 l/m 3,4 km/h (1 Bft) O-NO 61 2 min 0,000 mm 2,3 UV-I 603 W/m 4,3 C 11,8 C 4,8 km/h (1 Bft) 98,00 %
17.03.2017 10:52 11,8 C 56 % 1015,8 hPa 0,0 l/m 0,5 km/h (0 Bft) O-NO 61 2 min 0,000 mm 2,3 UV-I 619 W/m 3,3 C 11,8 C 1,6 km/h (1 Bft) 98,00 %
17.03.2017 10:54 11,7 C 56 % 1015,8 hPa 0,0 l/m 0,2 km/h (0 Bft) O-NO 61 2 min 0,000 mm 2,4 UV-I 618 W/m 3,2 C 11,7 C 1,6 km/h (1 Bft) 100,00 %
17.03.2017 10:56 11,7 C 57 % 1015,7 hPa 0,0 l/m 0,7 km/h (0 Bft) O-NO 61 2 min 0,000 mm 2,4 UV-I 619 W/m 3,5 C 11,7 C 3,2 km/h (1 Bft) 98,11 %
17.03.2017 10:58 11,8 C 57 % 1015,7 hPa 0,0 l/m 0,2 km/h (0 Bft) O-NO 61 2 min 0,000 mm 2,5 UV-I 624 W/m 3,6 C 11,8 C 1,6 km/h (1 Bft) 100,00 %
17.03.2017 11:00 12,0 C 57 % 1015,6 hPa 0,0 l/m 0,8 km/h (0 Bft) O-NO 61 2 min 0,280 mm 2,5 UV-I 625 W/m 3,8 C 12,0 C 3,2 km/h (1 Bft) 98,00 %
17.03.2017 11:02 12,1 C 55 % 1015,6 hPa 0,0 l/m 1,0 km/h (0 Bft) O-NO 60 2 min 0,000 mm 2,5 UV-I 624 W/m 3,3 C 12,1 C 3,2 km/h (1 Bft) 100,00 %
17.03.2017 11:04 12,1 C 53 % 1015,5 hPa 0,0 l/m 1,3 km/h (1 Bft) SO 140 2 min 0,000 mm 2,5 UV-I 627 W/m 2,8 C 12,1 C 3,2 km/h (1 Bft) 97,56 %
17.03.2017 11:06 12,2 C 53 % 1015,5 hPa 0,0 l/m 2,5 km/h (1 Bft) S 183 2 min 0,000 mm 2,5 UV-I 632 W/m 2,9 C 12,2 C 4,8 km/h (1 Bft) 96,23 %
17.03.2017 11:08 12,2 C 52 % 1015,5 hPa 0,0 l/m 2,0 km/h (1 Bft) S 183 2 min 0,000 mm 2,6 UV-I 635 W/m 2,6 C 12,2 C 3,2 km/h (1 Bft) 97,56 %
17.03.2017 11:10 12,3 C 54 % 1015,4 hPa 0,0 l/m 1,2 km/h (1 Bft) S 183 2 min 0,000 mm 2,6 UV-I 633 W/m 3,3 C 12,3 C 3,2 km/h (1 Bft) 100,00 %
17.03.2017 11:12 12,4 C 51 % 1015,3 hPa 0,0 l/m 1,5 km/h (1 Bft) S 184 2 min 0,000 mm 2,6 UV-I 639 W/m 2,6 C 12,4 C 3,2 km/h (1 Bft) 96,00 %
17.03.2017 11:14 12,4 C 51 % 1015,2 hPa 0,0 l/m 0,9 km/h (0 Bft) S 184 2 min 0,000 mm 2,6 UV-I 643 W/m 2,6 C 12,4 C 3,2 km/h (1 Bft) 93,62 %
17.03.2017 11:16 12,5 C 56 % 1015,2 hPa 0,0 l/m 1,7 km/h (1 Bft) S 184 2 min 0,000 mm 2,7 UV-I 643 W/m 4,0 C 12,5 C 3,2 km/h (1 Bft) 97,62 %
17.03.2017 11:18 12,6 C 56 % 1015,3 hPa 0,0 l/m 4,0 km/h (1 Bft) O 92 2 min 0,000 mm 2,7 UV-I 649 W/m 4,1 C 12,6 C 6,4 km/h (2 Bft) 96,36 %
17.03.2017 11:20 12,6 C 57 % 1015,2 hPa 0,0 l/m 3,2 km/h (1 Bft) O-SO 123 2 min 0,000 mm 2,7 UV-I 649 W/m 4,3 C 12,6 C 4,8 km/h (1 Bft) 91,43 %
17.03.2017 11:22 12,7 C 54 % 1015,2 hPa 0,0 l/m 2,9 km/h (1 Bft) SO 132 2 min 0,000 mm 2,7 UV-I 654 W/m 3,6 C 12,7 C 4,8 km/h (1 Bft) 93,22 %
17.03.2017 11:24 12,8 C 52 % 1015,2 hPa 0,0 l/m 1,1 km/h (1 Bft) SO 145 2 min 0,000 mm 2,7 UV-I 653 W/m 3,2 C 12,8 C 3,2 km/h (1 Bft) 95,12 %
17.03.2017 11:26 12,8 C 52 % 1015,2 hPa 0,0 l/m 0,8 km/h (0 Bft) SO 145 2 min 0,000 mm 2,7 UV-I 657 W/m 3,2 C 12,8 C 3,2 km/h (1 Bft) 95,74 %
17.03.2017 11:28 13,1 C 53 % 1015,1 hPa 0,0 l/m 1,0 km/h (0 Bft) S-SO 150 2 min 0,000 mm 2,7 UV-I 657 W/m 3,7 C 13,1 C 3,2 km/h (1 Bft) 95,92 %
17.03.2017 11:30 13,3 C 52 % 1015,1 hPa 0,0 l/m 3,3 km/h (1 Bft) SW 219 2 min 0,000 mm 2,8 UV-I 657 W/m 3,7 C 13,3 C 6,4 km/h (2 Bft) 96,55 %
17.03.2017 11:32 13,4 C 51 % 1015,1 hPa 0,0 l/m 1,6 km/h (1 Bft) SW 224 2 min 0,000 mm 2,8 UV-I 658 W/m 3,5 C 13,4 C 6,4 km/h (2 Bft) 93,85 %
17.03.2017 11:34 13,6 C 52 % 1015,1 hPa 0,0 l/m 3,2 km/h (1 Bft) W-SW 241 2 min 0,000 mm 2,8 UV-I 656 W/m 3,9 C 13,6 C 4,8 km/h (1 Bft) 93,62 %
17.03.2017 11:36 13,6 C 51 % 1015,0 hPa 0,0 l/m 3,0 km/h (1 Bft) W-SW 247 2 min 0,000 mm 2,8 UV-I 654 W/m 3,7 C 13,6 C 8,0 km/h (2 Bft) 95,12 %
17.03.2017 11:38 13,7 C 56 % 1015,1 hPa 0,0 l/m 0,9 km/h (0 Bft) W-SW 247 2 min 0,000 mm 2,8 UV-I 656 W/m 5,1 C 13,7 C 3,2 km/h (1 Bft) 98,11 %
17.03.2017 11:40 13,8 C 54 % 1015,1 hPa 0,0 l/m 1,2 km/h (1 Bft) W-SW 247 2 min 0,000 mm 2,8 UV-I 656 W/m 4,7 C 13,8 C 3,2 km/h (1 Bft) 86,84 %
17.03.2017 11:42 13,7 C 54 % 1015,1 hPa 0,0 l/m 0,3 km/h (0 Bft) W-SW 248 2 min 0,000 mm 2,8 UV-I 656 W/m 4,6 C 13,7 C 1,6 km/h (1 Bft) 94,00 %
17.03.2017 11:44 14,0 C 60 % 1015,0 hPa 0,0 l/m 1,1 km/h (1 Bft) W-NW 296 2 min 0,000 mm 2,8 UV-I 652 W/m 6,4 C 14,0 C 4,8 km/h (1 Bft) 96,23 %
17.03.2017 11:46 14,1 C 54 % 1014,9 hPa 0,0 l/m 3,0 km/h (1 Bft) NW 326 2 min 0,000 mm 2,8 UV-I 650 W/m 4,9 C 14,1 C 6,4 km/h (2 Bft) 100,00 %
17.03.2017 11:48 13,9 C 53 % 1014,9 hPa 0,0 l/m 1,0 km/h (0 Bft) N-NW 329 2 min 0,000 mm 2,8 UV-I 647 W/m 4,5 C 13,9 C 3,2 km/h (1 Bft) 98,11 %
17.03.2017 11:50 13,9 C 57 % 1014,8 hPa 0,0 l/m 2,1 km/h (1 Bft) W-NW 293 2 min 0,000 mm 2,7 UV-I 643 W/m 5,5 C 13,9 C 4,8 km/h (1 Bft) 98,11 %
17.03.2017 11:52 13,9 C 54 % 1014,9 hPa 0,0 l/m 3,1 km/h (1 Bft) W-NW 284 2 min 0,000 mm 2,8 UV-I 648 W/m 4,7 C 13,9 C 6,4 km/h (2 Bft) 95,12 %
17.03.2017 11:54 13,9 C 54 % 1014,8 hPa 0,0 l/m 1,1 km/h (1 Bft) W-NW 286 2 min 0,000 mm 2,8 UV-I 653 W/m 4,7 C 13,9 C 3,2 km/h (1 Bft) 96,23 %
17.03.2017 11:56 13,8 C 55 % 1014,8 hPa 0,0 l/m 2,9 km/h (1 Bft) W-NW 296 2 min 0,000 mm 2,8 UV-I 652 W/m 4,9 C 13,8 C 6,4 km/h (2 Bft) 100,00 %
17.03.2017 11:58 13,9 C 55 % 1014,8 hPa 0,0 l/m 1,2 km/h (1 Bft) NW 310 2 min 0,000 mm 2,8 UV-I 653 W/m 5,0 C 13,9 C 3,2 km/h (1 Bft) 98,11 %
17.03.2017 12:00 14,2 C 60 % 1014,8 hPa 0,0 l/m 1,8 km/h (1 Bft) N-NW 338 2 min 0,000 mm 2,8 UV-I 654 W/m 6,5 C 14,2 C 8,0 km/h (2 Bft) 97,37 %
17.03.2017 12:02 14,2 C 55 % 1014,7 hPa 0,0 l/m 1,9 km/h (1 Bft) N-NW 327 2 min 0,330 mm 2,8 UV-I 658 W/m 5,3 C 14,2 C 6,4 km/h (2 Bft) 90,57 %
17.03.2017 12:04 14,3 C 55 % 1014,7 hPa 0,0 l/m 1,3 km/h (1 Bft) NW 319 2 min 0,000 mm 2,8 UV-I 661 W/m 5,4 C 14,3 C 3,2 km/h (1 Bft) 100,00 %
17.03.2017 12:06 14,4 C 54 % 1014,7 hPa 0,0 l/m 3,1 km/h (1 Bft) NW 316 2 min 0,000 mm 2,8 UV-I 660 W/m 5,2 C 14,4 C 9,7 km/h (2 Bft) 98,00 %
17.03.2017 12:08 14,5 C 55 % 1014,7 hPa 0,0 l/m 1,4 km/h (1 Bft) NW 319 2 min 0,000 mm 2,8 UV-I 655 W/m 5,6 C 14,5 C 3,2 km/h (1 Bft) 100,00 %
17.03.2017 12:10 14,6 C 54 % 1014,7 hPa 0,0 l/m 3,4 km/h (1 Bft) NW 319 2 min 0,000 mm 2,8 UV-I 655 W/m 5,4 C 14,6 C 6,4 km/h (2 Bft) 100,00 %
17.03.2017 12:12 14,7 C 52 % 1014,7 hPa 0,0 l/m 2,1 km/h (1 Bft) W-NW 299 2 min 0,000 mm 2,8 UV-I 657 W/m 5,0 C 14,7 C 3,2 km/h (1 Bft) 100,00 %
17.03.2017 12:14 14,8 C 54 % 1014,7 hPa 0,0 l/m 4,2 km/h (1 Bft) W 275 2 min 0,000 mm 2,8 UV-I 654 W/m 5,6 C 14,8 C 9,7 km/h (2 Bft) 98,11 %
17.03.2017 12:16 14,9 C 53 % 1014,6 hPa 0,0 l/m 2,2 km/h (1 Bft) N-NW 328 2 min 0,000 mm 2,8 UV-I 660 W/m 5,4 C 14,9 C 4,8 km/h (1 Bft) 94,29 %
17.03.2017 12:18 15,0 C 53 % 1014,6 hPa 0,0 l/m 2,8 km/h (1 Bft) W-NW 292 2 min 0,000 mm 2,8 UV-I 657 W/m 5,5 C 15,0 C 4,8 km/h (1 Bft) 98,31 %
17.03.2017 12:20 15,0 C 50 % 1014,6 hPa 0,0 l/m 2,5 km/h (1 Bft) NW 314 2 min 0,000 mm 2,8 UV-I 656 W/m 4,7 C 15,0 C 4,8 km/h (1 Bft) 97,14 %
17.03.2017 12:22 15,1 C 53 % 1014,5 hPa 0,0 l/m 2,4 km/h (1 Bft) N-NW 327 2 min 0,000 mm 2,8 UV-I 656 W/m 5,6 C 15,1 C 6,4 km/h (2 Bft) 94,64 %
17.03.2017 12:24 15,2 C 54 % 1014,4 hPa 0,0 l/m 3,8 km/h (1 Bft) W 276 2 min 0,000 mm 2,8 UV-I 656 W/m 6,0 C 15,2 C 11,3 km/h (2 Bft) 98,00 %
17.03.2017 12:26 15,2 C 50 % 1014,4 hPa 0,0 l/m 7,4 km/h (2 Bft) W-SW 244 2 min 0,000 mm 2,8 UV-I 656 W/m 4,8 C 14,6 C 12,9 km/h (3 Bft) 97,87 %
17.03.2017 12:28 15,3 C 54 % 1014,3 hPa 0,0 l/m 1,7 km/h (1 Bft) W-NW 298 2 min 0,000 mm 2,8 UV-I 655 W/m 6,0 C 15,3 C 4,8 km/h (1 Bft) 92,68 %
17.03.2017 12:30 15,4 C 50 % 1014,3 hPa 0,0 l/m 2,2 km/h (1 Bft) N-NW 328 2 min 0,000 mm 2,7 UV-I 650 W/m 5,0 C 15,4 C 4,8 km/h (1 Bft) 100,00 %
17.03.2017 12:32 15,5 C 53 % 1014,2 hPa 0,0 l/m 1,4 km/h (1 Bft) NW 314 2 min 0,000 mm 2,8 UV-I 653 W/m 6,0 C 15,5 C 4,8 km/h (1 Bft) 97,22 %
17.03.2017 12:34 15,7 C 53 % 1014,2 hPa 0,0 l/m 2,2 km/h (1 Bft) NW 315 2 min 0,000 mm 2,7 UV-I 654 W/m 6,1 C 15,7 C 4,8 km/h (1 Bft) 98,21 %
17.03.2017 12:36 15,7 C 54 % 1014,2 hPa 0,0 l/m 3,8 km/h (1 Bft) NW 321 2 min 0,000 mm 2,7 UV-I 644 W/m 6,4 C 15,7 C 6,4 km/h (2 Bft) 97,56 %
17.03.2017 12:38 15,7 C 55 % 1014,1 hPa 0,0 l/m 2,5 km/h (1 Bft) W-NW 300 2 min 0,000 mm 2,7 UV-I 647 W/m 6,7 C 15,7 C 4,8 km/h (1 Bft) 98,00 %
17.03.2017 12:40 15,8 C 51 % 1014,0 hPa 0,0 l/m 4,2 km/h (1 Bft) W 275 2 min 0,000 mm 2,7 UV-I 651 W/m 5,7 C 15,8 C 9,7 km/h (2 Bft) 97,87 %
17.03.2017 12:42 15,8 C 52 % 1014,1 hPa 0,0 l/m 3,1 km/h (1 Bft) W-NW 302 2 min 0,000 mm 2,7 UV-I 645 W/m 6,0 C 15,8 C 6,4 km/h (2 Bft) 100,00 %
17.03.2017 12:44 16,0 C 52 % 1014,1 hPa 0,0 l/m 6,4 km/h (2 Bft) W 271 2 min 0,000 mm 2,7 UV-I 644 W/m 6,2 C 16,0 C 16,1 km/h (3 Bft) 100,00 %
17.03.2017 12:46 16,1 C 54 % 1014,1 hPa 0,0 l/m 1,6 km/h (1 Bft) NW 319 2 min 0,000 mm 2,7 UV-I 638 W/m 6,8 C 16,1 C 6,4 km/h (2 Bft) 100,00 %
17.03.2017 12:48 16,3 C 56 % 1014,0 hPa 0,0 l/m 2,8 km/h (1 Bft) NW 321 2 min 0,000 mm 2,6 UV-I 625 W/m 7,5 C 16,3 C 6,4 km/h (2 Bft) 100,00 %
17.03.2017 12:50 16,5 C 53 % 1014,0 hPa 0,0 l/m 3,6 km/h (1 Bft) W 263 2 min 0,000 mm 2,7 UV-I 629 W/m 6,9 C 16,5 C 9,7 km/h (2 Bft) 96,43 %
17.03.2017 12:52 16,8 C 54 % 1014,0 hPa 0,0 l/m 5,6 km/h (1 Bft) W 271 2 min 0,000 mm 2,7 UV-I 636 W/m 7,4 C 16,8 C 14,5 km/h (3 Bft) 97,73 %
17.03.2017 12:54 16,8 C 52 % 1014,0 hPa 0,0 l/m 6,1 km/h (2 Bft) W 264 2 min 0,000 mm 2,6 UV-I 632 W/m 6,9 C 16,8 C 14,5 km/h (3 Bft) 100,00 %
17.03.2017 12:56 16,8 C 51 % 1014,0 hPa 0,0 l/m 11,2 km/h (2 Bft) W-NW 284 2 min 0,000 mm 2,6 UV-I 628 W/m 6,6 C 14,6 C 19,3 km/h (3 Bft) 100,00 %
17.03.2017 12:58 16,7 C 49 % 1013,9 hPa 0,0 l/m 9,4 km/h (2 Bft) W-SW 252 2 min 0,000 mm 2,6 UV-I 617 W/m 5,9 C 15,2 C 17,7 km/h (3 Bft) 100,00 %
17.03.2017 13:00 16,7 C 50 % 1013,8 hPa 0,0 l/m 7,7 km/h (2 Bft) W-SW 252 2 min 0,355 mm 2,6 UV-I 630 W/m 6,2 C 16,0 C 12,9 km/h (3 Bft) 98,11 %
17.03.2017 13:02 16,7 C 51 % 1013,8 hPa 0,0 l/m 5,0 km/h (1 Bft) W 281 2 min 0,000 mm 2,6 UV-I 638 W/m 6,5 C 16,7 C 9,7 km/h (2 Bft) 97,73 %
17.03.2017 13:04 16,8 C 51 % 1013,7 hPa 0,0 l/m 3,7 km/h (1 Bft) W 261 2 min 0,000 mm 2,6 UV-I 638 W/m 6,6 C 16,8 C 9,7 km/h (2 Bft) 95,12 %
17.03.2017 13:06 16,9 C 51 % 1013,7 hPa 0,0 l/m 3,5 km/h (1 Bft) W 268 2 min 0,000 mm 2,6 UV-I 632 W/m 6,7 C 16,9 C 9,7 km/h (2 Bft) 96,23 %
17.03.2017 13:08 16,8 C 52 % 1013,6 hPa 0,0 l/m 2,4 km/h (1 Bft) W 275 2 min 0,000 mm 2,6 UV-I 632 W/m 6,9 C 16,8 C 4,8 km/h (1 Bft) 96,23 %
17.03.2017 13:10 17,0 C 54 % 1013,6 hPa 0,0 l/m 1,4 km/h (1 Bft) W 269 2 min 0,000 mm 2,6 UV-I 623 W/m 7,6 C 17,0 C 4,8 km/h (1 Bft) 97,73 %
17.03.2017 13:12 16,9 C 49 % 1013,6 hPa 0,0 l/m 4,7 km/h (1 Bft) W-SW 257 2 min 0,000 mm 2,6 UV-I 624 W/m 6,1 C 16,9 C 9,7 km/h (2 Bft) 96,00 %
17.03.2017 13:14 16,7 C 50 % 1013,4 hPa 0,0 l/m 2,5 km/h (1 Bft) S 188 2 min 0,000 mm 2,6 UV-I 636 W/m 6,2 C 16,7 C 4,8 km/h (1 Bft) 94,87 %
17.03.2017 13:16 16,6 C 50 % 1013,4 hPa 0,0 l/m 4,1 km/h (1 Bft) S 169 2 min 0,000 mm 2,6 UV-I 635 W/m 6,1 C 16,6 C 8,0 km/h (2 Bft) 94,00 %
17.03.2017 13:18 16,6 C 50 % 1013,4 hPa 0,0 l/m 1,2 km/h (1 Bft) S-SO 168 2 min 0,000 mm 2,6 UV-I 636 W/m 6,1 C 16,6 C 3,2 km/h (1 Bft) 95,74 %
17.03.2017 13:20 16,7 C 52 % 1013,4 hPa 0,0 l/m 1,4 km/h (1 Bft) S-SO 165 2 min 0,000 mm 2,6 UV-I 640 W/m 6,8 C 16,7 C 3,2 km/h (1 Bft) 94,34 %
17.03.2017 13:22 16,9 C 50 % 1013,4 hPa 0,0 l/m 3,9 km/h (1 Bft) SO 135 2 min 0,000 mm 2,6 UV-I 641 W/m 6,4 C 16,9 C 4,8 km/h (1 Bft) 92,68 %
17.03.2017 13:24 16,9 C 51 % 1013,3 hPa 0,0 l/m 2,8 km/h (1 Bft) SO 139 2 min 0,000 mm 2,5 UV-I 639 W/m 6,7 C 16,9 C 4,8 km/h (1 Bft) 92,68 %
17.03.2017 13:26 16,8 C 50 % 1013,3 hPa 0,0 l/m 2,8 km/h (1 Bft) O-SO 120 2 min 0,000 mm 2,5 UV-I 657 W/m 6,3 C 16,8 C 6,4 km/h (2 Bft) 95,74 %
17.03.2017 13:28 17,1 C 52 % 1013,2 hPa 0,0 l/m 3,4 km/h (1 Bft) S-SW 208 2 min 0,000 mm 2,5 UV-I 653 W/m 7,2 C 17,1 C 4,8 km/h (1 Bft) 96,23 %
17.03.2017 13:30 17,4 C 50 % 1013,2 hPa 0,0 l/m 1,9 km/h (1 Bft) O-SO 107 2 min 0,000 mm 2,5 UV-I 606 W/m 6,9 C 17,4 C 6,4 km/h (2 Bft) 90,00 %
17.03.2017 13:32 17,6 C 48 % 1013,1 hPa 0,0 l/m 4,4 km/h (1 Bft) S-SO 157 2 min 0,000 mm 2,3 UV-I 748 W/m 6,5 C 17,6 C 9,7 km/h (2 Bft) 97,73 %
17.03.2017 13:34 17,7 C 50 % 1013,1 hPa 0,0 l/m 5,3 km/h (1 Bft) W-SW 242 2 min 0,000 mm 1,9 UV-I 530 W/m 7,1 C 17,7 C 11,3 km/h (2 Bft) 97,37 %
17.03.2017 13:36 17,9 C 49 % 1013,1 hPa 0,0 l/m 9,6 km/h (2 Bft) SW 232 2 min 0,000 mm 2,4 UV-I 387 W/m 7,0 C 16,5 C 17,7 km/h (3 Bft) 95,74 %
17.03.2017 13:38 18,2 C 47 % 1013,1 hPa 0,0 l/m 7,3 km/h (2 Bft) W-NW 300 2 min 0,000 mm 2,5 UV-I 387 W/m 6,7 C 17,8 C 11,3 km/h (2 Bft) 98,21 %
17.03.2017 13:40 18,6 C 48 % 1013,0 hPa 0,0 l/m 11,4 km/h (2 Bft) W 269 2 min 0,000 mm 2,6 UV-I 806 W/m 7,4 C 16,6 C 17,7 km/h (3 Bft) 95,12 %
17.03.2017 13:42 18,8 C 47 % 1013,0 hPa 0,0 l/m 13,4 km/h (3 Bft) W-NW 286 2 min 0,000 mm 2,4 UV-I 817 W/m 7,2 C 16,2 C 17,7 km/h (3 Bft) 95,74 %
17.03.2017 13:44 18,8 C 47 % 1013,0 hPa 0,0 l/m 11,5 km/h (2 Bft) W-NW 288 2 min 0,000 mm 2,3 UV-I 817 W/m 7,2 C 16,8 C 16,1 km/h (3 Bft) 95,74 %
17.03.2017 13:46 18,8 C 47 % 1013,0 hPa 0,0 l/m 6,3 km/h (2 Bft) W-SW 248 2 min 0,000 mm 2,0 UV-I 580 W/m 7,2 C 18,8 C 14,5 km/h (3 Bft) 96,43 %
17.03.2017 13:48 18,9 C 48 % 1012,9 hPa 0,0 l/m 5,8 km/h (2 Bft) W 267 2 min 0,000 mm 1,7 UV-I 387 W/m 7,6 C 18,9 C 12,9 km/h (3 Bft) 91,67 %
17.03.2017 13:50 18,9 C 48 % 1012,9 hPa 0,0 l/m 6,0 km/h (2 Bft) W 281 2 min 0,000 mm 1,7 UV-I 483 W/m 7,6 C 18,9 C 11,3 km/h (2 Bft) 94,23 %
17.03.2017 13:52 18,7 C 46 % 1012,8 hPa 0,0 l/m 14,5 km/h (3 Bft) W-NW 285 2 min 0,000 mm 1,7 UV-I 472 W/m 6,8 C 15,8 C 24,1 km/h (4 Bft) 98,00 %
17.03.2017 13:54 18,5 C 47 % 1012,7 hPa 0,0 l/m 7,2 km/h (2 Bft) W 260 2 min 0,000 mm 1,6 UV-I 350 W/m 7,0 C 18,1 C 14,5 km/h (3 Bft) 95,83 %
17.03.2017 13:56 18,3 C 47 % 1012,7 hPa 0,0 l/m 8,4 km/h (2 Bft) W 264 2 min 0,000 mm 1,7 UV-I 369 W/m 6,8 C 17,4 C 12,9 km/h (3 Bft) 93,62 %
17.03.2017 13:58 18,2 C 48 % 1012,6 hPa 0,0 l/m 7,2 km/h (2 Bft) W-NW 300 2 min 0,000 mm 1,5 UV-I 328 W/m 7,0 C 17,8 C 16,1 km/h (3 Bft) 93,62 %
17.03.2017 14:00 18,1 C 48 % 1012,6 hPa 0,0 l/m 9,7 km/h (2 Bft) W-SW 238 0 min 0,356 mm 1,3 UV-I 277 W/m 6,9 C 16,7 C 16,1 km/h (3 Bft) 95,12 %
17.03.2017 14:03 17,8 C 49 % 1012,5 hPa 0,0 l/m 6,8 km/h (2 Bft) W-NW 285 0 min 0,000 mm 1,1 UV-I 223 W/m 6,9 C 17,6 C 14,5 km/h (3 Bft) 89,47 %
17.03.2017 14:04 17,7 C 49 % 1012,5 hPa 0,0 l/m 12,7 km/h (3 Bft) W 270 0 min 0,000 mm 1,0 UV-I 209 W/m 6,9 C 15,2 C 19,3 km/h (3 Bft) 100,00 %
17.03.2017 14:06 17,6 C 49 % 1012,5 hPa 0,0 l/m 10,5 km/h (2 Bft) W 271 0 min 0,000 mm 1,0 UV-I 223 W/m 6,8 C 15,8 C 17,7 km/h (3 Bft) 97,67 %
17.03.2017 14:08 17,5 C 49 % 1012,4 hPa 0,0 l/m 8,9 km/h (2 Bft) W-NW 302 0 min 0,000 mm 1,0 UV-I 237 W/m 6,7 C 16,3 C 17,7 km/h (3 Bft) 91,84 %
17.03.2017 14:10 17,4 C 50 % 1012,5 hPa 0,0 l/m 7,1 km/h (2 Bft) W 267 0 min 0,000 mm 1,0 UV-I 237 W/m 6,9 C 17,1 C 14,5 km/h (3 Bft) 96,00 %
17.03.2017 14:12 17,4 C 50 % 1012,4 hPa 0,0 l/m 9,6 km/h (2 Bft) W 264 0 min 0,000 mm 1,0 UV-I 223 W/m 6,9 C 15,9 C 16,1 km/h (3 Bft) 93,62 %
17.03.2017 14:14 17,3 C 50 % 1012,4 hPa 0,0 l/m 7,1 km/h (2 Bft) W 275 0 min 0,000 mm 0,9 UV-I 205 W/m 6,8 C 17,0 C 12,9 km/h (3 Bft) 96,00 %
17.03.2017 14:16 17,3 C 52 % 1012,3 hPa 0,0 l/m 3,0 km/h (1 Bft) W-NW 289 0 min 0,000 mm 0,9 UV-I 215 W/m 7,3 C 17,3 C 11,3 km/h (2 Bft) 97,56 %
17.03.2017 14:18 17,2 C 52 % 1012,3 hPa 0,0 l/m 5,1 km/h (1 Bft) W-SW 247 0 min 0,000 mm 1,0 UV-I 275 W/m 7,3 C 17,2 C 9,7 km/h (2 Bft) 93,18 %
17.03.2017 14:20 17,3 C 51 % 1012,3 hPa 0,0 l/m 11,5 km/h (2 Bft) W-NW 284 2 min 0,000 mm 1,2 UV-I 327 W/m 7,1 C 15,1 C 22,5 km/h (4 Bft) 98,11 %
17.03.2017 14:22 17,3 C 50 % 1012,1 hPa 0,0 l/m 11,9 km/h (2 Bft) W 263 2 min 0,000 mm 1,3 UV-I 330 W/m 6,8 C 15,0 C 20,9 km/h (4 Bft) 95,74 %
17.03.2017 14:24 17,4 C 50 % 1012,1 hPa 0,0 l/m 4,5 km/h (1 Bft) W 270 2 min 0,000 mm 1,5 UV-I 390 W/m 6,9 C 17,4 C 12,9 km/h (3 Bft) 92,00 %
17.03.2017 14:26 17,6 C 51 % 1012,0 hPa 0,0 l/m 3,4 km/h (1 Bft) W 280 2 min 0,000 mm 1,3 UV-I 350 W/m 7,3 C 17,6 C 6,4 km/h (2 Bft) 95,74 %
17.03.2017 14:28 17,7 C 52 % 1011,9 hPa 0,0 l/m 5,4 km/h (1 Bft) W 277 0 min 0,000 mm 1,2 UV-I 297 W/m 7,7 C 17,7 C 11,3 km/h (2 Bft) 95,45 %
17.03.2017 14:30 17,7 C 49 % 1011,9 hPa 0,0 l/m 6,8 km/h (2 Bft) W-SW 248 0 min 0,000 mm 1,1 UV-I 273 W/m 6,9 C 17,5 C 16,1 km/h (3 Bft) 97,62 %
17.03.2017 14:32 17,6 C 49 % 1011,9 hPa 0,0 l/m 5,7 km/h (1 Bft) W-SW 252 0 min 0,000 mm 1,1 UV-I 265 W/m 6,8 C 17,6 C 12,9 km/h (3 Bft) 96,15 %
17.03.2017 14:34 17,5 C 51 % 1011,8 hPa 0,0 l/m 6,3 km/h (2 Bft) W 265 0 min 0,000 mm 1,0 UV-I 242 W/m 7,3 C 17,5 C 11,3 km/h (2 Bft) 95,24 %
17.03.2017 14:36 17,4 C 51 % 1011,8 hPa 0,0 l/m 7,2 km/h (2 Bft) W 273 0 min 0,000 mm 0,9 UV-I 214 W/m 7,2 C 17,0 C 12,9 km/h (3 Bft) 95,45 %
17.03.2017 14:38 17,3 C 50 % 1011,7 hPa 0,0 l/m 0,7 km/h (0 Bft) W 273 0 min 0,000 mm 0,9 UV-I 205 W/m 6,8 C 17,3 C 4,8 km/h (1 Bft) 100,00 %
17.03.2017 14:40 17,3 C 51 % 1011,6 hPa 0,0 l/m 4,0 km/h (1 Bft) W 271 0 min 0,000 mm 1,0 UV-I 240 W/m 7,1 C 17,3 C 6,4 km/h (2 Bft) 100,00 %
17.03.2017 14:42 17,3 C 53 % 1011,5 hPa 0,0 l/m 3,6 km/h (1 Bft) W-NW 285 0 min 0,000 mm 1,0 UV-I 265 W/m 7,6 C 17,3 C 6,4 km/h (2 Bft) 97,56 %
17.03.2017 14:44 17,3 C 55 % 1011,4 hPa 0,0 l/m 3,3 km/h (1 Bft) W 265 2 min 0,000 mm 1,1 UV-I 340 W/m 8,2 C 17,3 C 6,4 km/h (2 Bft) 98,21 %
17.03.2017 14:46 17,4 C 53 % 1011,4 hPa 0,0 l/m 2,9 km/h (1 Bft) W 281 2 min 0,000 mm 1,2 UV-I 374 W/m 7,7 C 17,4 C 6,4 km/h (2 Bft) 100,00 %
17.03.2017 14:48 17,6 C 51 % 1011,3 hPa 0,0 l/m 4,0 km/h (1 Bft) W-SW 251 2 min 0,000 mm 1,2 UV-I 385 W/m 7,3 C 17,6 C 6,4 km/h (2 Bft) 97,87 %
17.03.2017 14:50 17,7 C 51 % 1011,3 hPa 0,0 l/m 4,8 km/h (1 Bft) W 274 2 min 0,000 mm 1,2 UV-I 367 W/m 7,4 C 17,7 C 9,7 km/h (2 Bft) 94,74 %
17.03.2017 14:52 17,8 C 50 % 1011,3 hPa 0,0 l/m 6,0 km/h (2 Bft) W 259 2 min 0,000 mm 1,3 UV-I 417 W/m 7,2 C 17,8 C 11,3 km/h (2 Bft) 100,00 %
17.03.2017 14:54 17,9 C 49 % 1011,2 hPa 0,0 l/m 6,0 km/h (2 Bft) W 278 2 min 0,000 mm 1,4 UV-I 504 W/m 7,0 C 17,9 C 9,7 km/h (2 Bft) 95,65 %
17.03.2017 14:56 18,1 C 49 % 1011,1 hPa 0,0 l/m 2,8 km/h (1 Bft) NW 317 2 min 0,000 mm 1,5 UV-I 536 W/m 7,2 C 18,1 C 9,7 km/h (2 Bft) 98,00 %
17.03.2017 14:58 18,2 C 49 % 1011,1 hPa 0,0 l/m 7,2 km/h (2 Bft) W 273 2 min 0,000 mm 1,3 UV-I 393 W/m 7,3 C 17,8 C 12,9 km/h (3 Bft) 94,34 %
17.03.2017 15:00 18,3 C 49 % 1011,0 hPa 0,0 l/m 2,2 km/h (1 Bft) W 280 2 min 0,000 mm 1,3 UV-I 358 W/m 7,4 C 18,3 C 4,8 km/h (1 Bft) 97,73 %
17.03.2017 15:02 18,3 C 50 % 1011,0 hPa 0,0 l/m 8,9 km/h (2 Bft) W-SW 255 2 min 0,203 mm 1,3 UV-I 378 W/m 7,7 C 17,2 C 19,3 km/h (3 Bft) 95,12 %
17.03.2017 15:04 18,3 C 48 % 1010,9 hPa 0,0 l/m 9,3 km/h (2 Bft) W 278 2 min 0,000 mm 1,2 UV-I 316 W/m 7,1 C 17,0 C 16,1 km/h (3 Bft) 98,11 %
17.03.2017 15:06 18,3 C 49 % 1010,8 hPa 0,0 l/m 6,7 km/h (2 Bft) SW 229 2 min 0,000 mm 1,2 UV-I 326 W/m 7,4 C 18,2 C 11,3 km/h (2 Bft) 94,00 %
17.03.2017 15:08 18,5 C 49 % 1010,8 hPa 0,0 l/m 4,7 km/h (1 Bft) W-NW 300 2 min 0,000 mm 1,2 UV-I 461 W/m 7,6 C 18,5 C 8,0 km/h (2 Bft) 94,87 %
17.03.2017 15:10 18,7 C 51 % 1010,7 hPa 0,0 l/m 5,4 km/h (1 Bft) W-NW 285 2 min 0,000 mm 1,1 UV-I 399 W/m 8,4 C 18,7 C 12,9 km/h (3 Bft) 96,00 %
17.03.2017 15:12 18,8 C 48 % 1010,6 hPa 0,0 l/m 6,3 km/h (2 Bft) W-SW 258 2 min 0,000 mm 1,0 UV-I 381 W/m 7,6 C 18,8 C 12,9 km/h (3 Bft) 96,36 %
17.03.2017 15:14 18,7 C 47 % 1010,6 hPa 0,0 l/m 5,1 km/h (1 Bft) W-SW 252 2 min 0,000 mm 1,0 UV-I 289 W/m 7,2 C 18,7 C 8,0 km/h (2 Bft) 97,22 %
17.03.2017 15:16 18,7 C 47 % 1010,6 hPa 0,0 l/m 3,5 km/h (1 Bft) W-SW 238 2 min 0,000 mm 1,0 UV-I 326 W/m 7,2 C 18,7 C 6,4 km/h (2 Bft) 96,00 %
17.03.2017 15:18 18,7 C 48 % 1010,5 hPa 0,0 l/m 6,3 km/h (2 Bft) SW 236 2 min 0,000 mm 0,9 UV-I 254 W/m 7,5 C 18,7 C 11,3 km/h (2 Bft) 97,37 %
17.03.2017 15:20 18,6 C 46 % 1010,5 hPa 0,0 l/m 6,8 km/h (2 Bft) W-SW 250 2 min 0,000 mm 0,9 UV-I 244 W/m 6,8 C 18,4 C 14,5 km/h (3 Bft) 94,64 %
17.03.2017 15:22 18,6 C 46 % 1010,5 hPa 0,0 l/m 11,3 km/h (2 Bft) W-SW 250 2 min 0,000 mm 0,8 UV-I 242 W/m 6,8 C 16,6 C 19,3 km/h (3 Bft) 92,00 %
17.03.2017 15:24 18,5 C 47 % 1010,5 hPa 0,0 l/m 10,9 km/h (2 Bft) W 271 2 min 0,000 mm 0,8 UV-I 248 W/m 7,0 C 16,7 C 17,7 km/h (3 Bft) 94,29 %
17.03.2017 15:26 18,4 C 47 % 1010,5 hPa 0,0 l/m 9,3 km/h (2 Bft) W-NW 287 2 min 0,000 mm 0,8 UV-I 248 W/m 6,9 C 17,1 C 14,5 km/h (3 Bft) 94,74 %
17.03.2017 15:28 18,4 C 47 % 1010,4 hPa 0,0 l/m 9,1 km/h (2 Bft) W-NW 284 2 min 0,000 mm 0,8 UV-I 254 W/m 6,9 C 17,2 C 19,3 km/h (3 Bft) 98,21 %
17.03.2017 15:30 18,4 C 47 % 1010,4 hPa 0,0 l/m 10,6 km/h (2 Bft) W 269 0 min 0,000 mm 0,8 UV-I 229 W/m 6,9 C 16,7 C 14,5 km/h (3 Bft) 100,00 %
17.03.2017 15:32 18,4 C 46 % 1010,4 hPa 0,0 l/m 8,0 km/h (2 Bft) W 259 0 min 0,000 mm 0,7 UV-I 198 W/m 6,6 C 17,7 C 12,9 km/h (3 Bft) 100,00 %
17.03.2017 15:34 18,3 C 47 % 1010,4 hPa 0,0 l/m 7,1 km/h (2 Bft) W-SW 247 0 min 0,000 mm 0,7 UV-I 174 W/m 6,8 C 18,0 C 12,9 km/h (3 Bft) 97,56 %
17.03.2017 15:36 18,3 C 47 % 1010,3 hPa 0,0 l/m 8,2 km/h (2 Bft) W-NW 292 0 min 0,000 mm 0,6 UV-I 159 W/m 6,8 C 17,5 C 12,9 km/h (3 Bft) 94,34 %
17.03.2017 15:38 18,3 C 48 % 1010,3 hPa 0,0 l/m 9,9 km/h (2 Bft) W-SW 239 0 min 0,000 mm 0,6 UV-I 162 W/m 7,1 C 16,8 C 19,3 km/h (3 Bft) 100,00 %
17.03.2017 15:40 18,2 C 49 % 1010,3 hPa 0,0 l/m 9,2 km/h (2 Bft) W-NW 289 0 min 0,000 mm 0,6 UV-I 167 W/m 7,3 C 17,0 C 16,1 km/h (3 Bft) 100,00 %
17.03.2017 15:42 18,2 C 48 % 1010,2 hPa 0,0 l/m 9,4 km/h (2 Bft) W 271 0 min 0,000 mm 0,6 UV-I 154 W/m 7,0 C 16,9 C 19,3 km/h (3 Bft) 97,73 %
17.03.2017 15:44 18,1 C 48 % 1010,2 hPa 0,0 l/m 10,3 km/h (2 Bft) W 275 0 min 0,000 mm 0,5 UV-I 142 W/m 6,9 C 16,4 C 16,1 km/h (3 Bft) 100,00 %
17.03.2017 15:46 18,1 C 48 % 1010,2 hPa 0,0 l/m 9,6 km/h (2 Bft) W 272 0 min 0,000 mm 0,5 UV-I 131 W/m 6,9 C 16,7 C 14,5 km/h (3 Bft) 97,62 %
17.03.2017 15:48 18,1 C 49 % 1010,2 hPa 0,0 l/m 6,2 km/h (2 Bft) W 271 0 min 0,000 mm 0,5 UV-I 117 W/m 7,2 C 18,1 C 9,7 km/h (2 Bft) 97,73 %
17.03.2017 15:50 17,9 C 49 % 1010,1 hPa 0,0 l/m 8,8 km/h (2 Bft) SW 235 0 min 0,000 mm 0,2 UV-I 105 W/m 7,0 C 16,8 C 16,1 km/h (3 Bft) 100,00 %
17.03.2017 15:52 17,9 C 48 % 1010,0 hPa 0,0 l/m 14,3 km/h (3 Bft) W-SW 249 0 min 0,000 mm 0,0 UV-I 95 W/m 6,7 C 14,9 C 19,3 km/h (3 Bft) 98,11 %
17.03.2017 15:54 17,8 C 48 % 1010,0 hPa 0,0 l/m 9,7 km/h (2 Bft) W 269 0 min 0,000 mm 0,0 UV-I 84 W/m 6,6 C 16,3 C 14,5 km/h (3 Bft) 100,00 %
17.03.2017 15:56 17,8 C 49 % 1009,9 hPa 0,0 l/m 7,5 km/h (2 Bft) W-SW 245 0 min 0,000 mm 0,0 UV-I 79 W/m 6,9 C 17,3 C 12,9 km/h (3 Bft) 96,43 %
17.03.2017 15:58 17,8 C 49 % 1009,8 hPa 0,0 l/m 4,6 km/h (1 Bft) W-SW 254 0 min 0,000 mm 0,0 UV-I 71 W/m 6,9 C 17,8 C 8,0 km/h (2 Bft) 100,00 %
17.03.2017 16:00 17,7 C 50 % 1009,8 hPa 0,0 l/m 4,0 km/h (1 Bft) W 261 0 min 0,000 mm 0,0 UV-I 56 W/m 7,1 C 17,7 C 6,4 km/h (2 Bft) 100,00 %
17.03.2017 16:02 17,6 C 51 % 1009,8 hPa 0,0 l/m 2,2 km/h (1 Bft) W 271 0 min 0,178 mm 0,0 UV-I 52 W/m 7,3 C 17,6 C 4,8 km/h (1 Bft) 97,87 %
17.03.2017 16:04 17,4 C 52 % 1009,8 hPa 0,0 l/m 0,7 km/h (0 Bft) W 271 0 min 0,000 mm 0,0 UV-I 56 W/m 7,4 C 17,4 C 3,2 km/h (1 Bft) 100,00 %
17.03.2017 16:06 17,2 C 57 % 1009,8 hPa 0,0 l/m 3,7 km/h (1 Bft) W-NW 286 0 min 0,000 mm 0,0 UV-I 74 W/m 8,6 C 17,2 C 4,8 km/h (1 Bft) 98,00 %
17.03.2017 16:08 16,9 C 59 % 1009,8 hPa 0,2 l/m 3,7 km/h (1 Bft) W 281 0 min 0,000 mm 0,0 UV-I 71 W/m 8,8 C 16,9 C 9,7 km/h (2 Bft) 94,74 %
17.03.2017 16:10 16,4 C 64 % 1009,8 hPa 0,0 l/m 2,8 km/h (1 Bft) W-NW 294 0 min 0,000 mm 0,0 UV-I 65 W/m 9,6 C 16,4 C 4,8 km/h (1 Bft) 95,74 %
17.03.2017 16:12 16,0 C 67 % 1009,9 hPa 0,0 l/m 2,7 km/h (1 Bft) W-SW 256 0 min 0,000 mm 0,0 UV-I 81 W/m 9,9 C 16,0 C 4,8 km/h (1 Bft) 98,21 %
17.03.2017 16:14 15,8 C 67 % 1009,8 hPa 0,0 l/m 2,9 km/h (1 Bft) NW 305 0 min 0,000 mm 0,0 UV-I 125 W/m 9,7 C 15,8 C 6,4 km/h (2 Bft) 100,00 %
17.03.2017 16:16 15,9 C 64 % 1009,6 hPa 0,0 l/m 1,4 km/h (1 Bft) W-NW 288 2 min 0,000 mm 0,0 UV-I 262 W/m 9,1 C 15,9 C 12,9 km/h (3 Bft) 100,00 %
17.03.2017 16:18 16,3 C 64 % 1009,6 hPa 0,0 l/m 5,7 km/h (1 Bft) W 265 2 min 0,000 mm 0,0 UV-I 172 W/m 9,5 C 16,3 C 9,7 km/h (2 Bft) 97,87 %
17.03.2017 16:20 16,4 C 62 % 1009,6 hPa 0,0 l/m 8,1 km/h (2 Bft) W-NW 290 0 min 0,000 mm 0,0 UV-I 154 W/m 9,1 C 15,5 C 17,7 km/h (3 Bft) 100,00 %
17.03.2017 16:22 16,6 C 62 % 1009,7 hPa 0,0 l/m 2,7 km/h (1 Bft) W-NW 292 0 min 0,000 mm 0,0 UV-I 135 W/m 9,3 C 16,6 C 6,4 km/h (2 Bft) 97,37 %
17.03.2017 16:24 16,6 C 62 % 1009,7 hPa 0,0 l/m 9,1 km/h (2 Bft) SW 222 2 min 0,000 mm 0,0 UV-I 177 W/m 9,3 C 15,3 C 16,1 km/h (3 Bft) 94,00 %
17.03.2017 16:26 16,7 C 59 % 1009,7 hPa 0,0 l/m 5,2 km/h (1 Bft) W 265 0 min 0,000 mm 0,0 UV-I 130 W/m 8,6 C 16,7 C 12,9 km/h (3 Bft) 98,00 %
17.03.2017 16:28 16,8 C 60 % 1009,7 hPa 0,0 l/m 2,2 km/h (1 Bft) W 279 2 min 0,000 mm 0,0 UV-I 180 W/m 9,0 C 16,8 C 4,8 km/h (1 Bft) 100,00 %
17.03.2017 16:30 16,9 C 59 % 1009,8 hPa 0,0 l/m 3,6 km/h (1 Bft) W 275 2 min 0,000 mm 0,0 UV-I 274 W/m 8,8 C 16,9 C 4,8 km/h (1 Bft) 95,24 %
17.03.2017 16:32 17,0 C 58 % 1009,7 hPa 0,0 l/m 4,1 km/h (1 Bft) W-NW 284 2 min 0,000 mm 0,0 UV-I 243 W/m 8,7 C 17,0 C 9,7 km/h (2 Bft) 94,74 %
17.03.2017 16:34 17,1 C 58 % 1009,5 hPa 0,0 l/m 2,7 km/h (1 Bft) W 271 2 min 0,000 mm 0,0 UV-I 264 W/m 8,8 C 17,1 C 6,4 km/h (2 Bft) 100,00 %
17.03.2017 16:36 17,3 C 55 % 1009,5 hPa 0,0 l/m 8,3 km/h (2 Bft) NW 321 2 min 0,000 mm 0,0 UV-I 249 W/m 8,2 C 16,4 C 14,5 km/h (3 Bft) 97,56 %
17.03.2017 16:38 17,4 C 55 % 1009,5 hPa 0,0 l/m 7,4 km/h (2 Bft) W-SW 241 2 min 0,000 mm 0,0 UV-I 250 W/m 8,3 C 16,9 C 12,9 km/h (3 Bft) 100,00 %
17.03.2017 16:40 17,4 C 55 % 1009,4 hPa 0,0 l/m 7,9 km/h (2 Bft) W-NW 287 2 min 0,000 mm 0,0 UV-I 244 W/m 8,3 C 16,7 C 19,3 km/h (3 Bft) 100,00 %
17.03.2017 16:42 17,6 C 56 % 1009,3 hPa 0,0 l/m 8,9 km/h (2 Bft) W 274 2 min 0,000 mm 0,0 UV-I 228 W/m 8,7 C 16,4 C 12,9 km/h (3 Bft) 100,00 %
17.03.2017 16:44 17,6 C 56 % 1009,3 hPa 0,0 l/m 6,7 km/h (2 Bft) W-SW 243 2 min 0,000 mm 0,0 UV-I 226 W/m 8,7 C 17,5 C 11,3 km/h (2 Bft) 97,56 %
17.03.2017 16:46 17,6 C 56 % 1009,3 hPa 0,0 l/m 5,8 km/h (2 Bft) W 274 2 min 0,000 mm 0,0 UV-I 239 W/m 8,7 C 17,6 C 11,3 km/h (2 Bft) 98,21 %
17.03.2017 16:48 17,7 C 54 % 1009,2 hPa 0,0 l/m 8,6 km/h (2 Bft) W 267 2 min 0,000 mm 0,0 UV-I 224 W/m 8,3 C 16,7 C 12,9 km/h (3 Bft) 100,00 %
17.03.2017 16:50 17,7 C 53 % 1009,2 hPa 0,0 l/m 5,5 km/h (1 Bft) W-SW 256 2 min 0,000 mm 0,0 UV-I 198 W/m 8,0 C 17,7 C 9,7 km/h (2 Bft) 98,00 %
17.03.2017 16:52 17,7 C 54 % 1009,2 hPa 0,0 l/m 5,3 km/h (1 Bft) W-SW 244 2 min 0,000 mm 0,0 UV-I 185 W/m 8,3 C 17,7 C 12,9 km/h (3 Bft) 100,00 %
17.03.2017 16:54 17,6 C 54 % 1009,2 hPa 0,0 l/m 7,0 km/h (2 Bft) W 281 2 min 0,000 mm 0,0 UV-I 166 W/m 8,2 C 17,3 C 11,3 km/h (2 Bft) 96,61 %
17.03.2017 16:56 17,6 C 53 % 1009,2 hPa 0,0 l/m 7,9 km/h (2 Bft) W-NW 292 2 min 0,000 mm 0,0 UV-I 125 W/m 7,9 C 16,9 C 16,1 km/h (3 Bft) 89,47 %
17.03.2017 16:58 17,6 C 54 % 1009,2 hPa 0,0 l/m 6,1 km/h (2 Bft) W 276 2 min 0,000 mm 0,0 UV-I 125 W/m 8,2 C 17,6 C 12,9 km/h (3 Bft) 94,64 %
17.03.2017 17:00 17,4 C 54 % 1009,2 hPa 0,0 l/m 5,4 km/h (1 Bft) W-NW 287 0 min 0,127 mm 0,0 UV-I 99 W/m 8,0 C 17,4 C 11,3 km/h (2 Bft) 97,56 %
17.03.2017 17:02 17,4 C 55 % 1009,2 hPa 0,0 l/m 8,2 km/h (2 Bft) SW 221 0 min 0,000 mm 0,0 UV-I 85 W/m 8,3 C 16,5 C 12,9 km/h (3 Bft) 94,00 %
17.03.2017 17:04 17,3 C 55 % 1009,2 hPa 0,0 l/m 5,7 km/h (1 Bft) W-SW 255 2 min 0,000 mm 0,0 UV-I 108 W/m 8,2 C 17,3 C 9,7 km/h (2 Bft) 97,62 %
17.03.2017 17:06 17,2 C 56 % 1009,2 hPa 0,0 l/m 5,1 km/h (1 Bft) W-SW 258 2 min 0,000 mm 0,0 UV-I 137 W/m 8,3 C 17,2 C 9,7 km/h (2 Bft) 91,49 %
17.03.2017 17:08 17,2 C 57 % 1009,1 hPa 0,0 l/m 3,0 km/h (1 Bft) W 261 2 min 0,000 mm 0,0 UV-I 96 W/m 8,6 C 17,2 C 6,4 km/h (2 Bft) 94,34 %
17.03.2017 17:10 17,1 C 57 % 1009,1 hPa 0,0 l/m 4,1 km/h (1 Bft) W-SW 247 0 min 0,000 mm 0,0 UV-I 72 W/m 8,5 C 17,1 C 6,4 km/h (2 Bft) 89,47 %
17.03.2017 17:12 17,0 C 56 % 1009,1 hPa 0,0 l/m 5,7 km/h (1 Bft) W-SW 251 0 min 0,000 mm 0,0 UV-I 64 W/m 8,2 C 17,0 C 9,7 km/h (2 Bft) 96,23 %
17.03.2017 17:14 17,0 C 56 % 1009,1 hPa 0,0 l/m 4,2 km/h (1 Bft) W 279 0 min 0,000 mm 0,0 UV-I 64 W/m 8,2 C 17,0 C 6,4 km/h (2 Bft) 96,00 %
17.03.2017 17:16 17,0 C 55 % 1009,0 hPa 0,0 l/m 5,0 km/h (1 Bft) W 261 0 min 0,000 mm 0,0 UV-I 65 W/m 7,9 C 17,0 C 8,0 km/h (2 Bft) 97,37 %
17.03.2017 17:18 16,9 C 56 % 1009,1 hPa 0,0 l/m 6,1 km/h (2 Bft) W 264 0 min 0,000 mm 0,0 UV-I 63 W/m 8,1 C 16,9 C 9,7 km/h (2 Bft) 95,74 %
17.03.2017 17:20 16,8 C 56 % 1009,1 hPa 0,0 l/m 4,1 km/h (1 Bft) W 265 0 min 0,000 mm 0,0 UV-I 58 W/m 8,0 C 16,8 C 6,4 km/h (2 Bft) 85,11 %
17.03.2017 17:22 16,8 C 57 % 1009,0 hPa 0,0 l/m 3,6 km/h (1 Bft) W 259 0 min 0,000 mm 0,0 UV-I 51 W/m 8,2 C 16,8 C 6,4 km/h (2 Bft) 97,87 %
17.03.2017 17:24 16,7 C 57 % 1009,0 hPa 0,0 l/m 2,2 km/h (1 Bft) W 259 0 min 0,000 mm 0,0 UV-I 43 W/m 8,1 C 16,7 C 3,2 km/h (1 Bft) 98,00 %
17.03.2017 17:26 16,7 C 57 % 1009,0 hPa 0,0 l/m 3,0 km/h (1 Bft) W 259 0 min 0,000 mm 0,0 UV-I 37 W/m 8,1 C 16,7 C 4,8 km/h (1 Bft) 94,00 %
17.03.2017 17:28 16,6 C 57 % 1009,0 hPa 0,0 l/m 2,1 km/h (1 Bft) W 259 0 min 0,000 mm 0,0 UV-I 32 W/m 8,0 C 16,6 C 4,8 km/h (1 Bft) 92,50 %
17.03.2017 17:30 16,6 C 57 % 1009,0 hPa 0,0 l/m 2,7 km/h (1 Bft) W-SW 257 0 min 0,000 mm 0,0 UV-I 29 W/m 8,0 C 16,6 C 6,4 km/h (2 Bft) 98,11 %
17.03.2017 17:32 16,6 C 58 % 1008,9 hPa 0,0 l/m 2,3 km/h (1 Bft) W-SW 257 0 min 0,000 mm 0,0 UV-I 26 W/m 8,3 C 16,6 C 4,8 km/h (1 Bft) 96,00 %
17.03.2017 17:34 16,4 C 60 % 1008,9 hPa 0,0 l/m 2,4 km/h (1 Bft) W-SW 252 0 min 0,000 mm 0,0 UV-I 24 W/m 8,6 C 16,4 C 4,8 km/h (1 Bft) 95,74 %
17.03.2017 17:36 16,1 C 61 % 1008,8 hPa 0,0 l/m 1,3 km/h (1 Bft) SW 215 0 min 0,000 mm 0,0 UV-I 22 W/m 8,6 C 16,1 C 3,2 km/h (1 Bft) 94,74 %
17.03.2017 17:38 15,9 C 62 % 1008,8 hPa 0,0 l/m 0,4 km/h (0 Bft) SW 215 0 min 0,000 mm 0,0 UV-I 21 W/m 8,6 C 15,9 C 1,6 km/h (1 Bft) 95,74 %
17.03.2017 17:40 15,8 C 62 % 1008,7 hPa 0,0 l/m 1,0 km/h (0 Bft) SW 215 0 min 0,000 mm 0,0 UV-I 21 W/m 8,5 C 15,8 C 3,2 km/h (1 Bft) 96,23 %
17.03.2017 17:42 15,8 C 61 % 1008,8 hPa 0,0 l/m 2,6 km/h (1 Bft) SW 215 0 min 0,000 mm 0,0 UV-I 21 W/m 8,3 C 15,8 C 3,2 km/h (1 Bft) 97,56 %
17.03.2017 17:44 15,8 C 61 % 1008,8 hPa 0,0 l/m 2,5 km/h (1 Bft) SW 217 0 min 0,000 mm 0,0 UV-I 21 W/m 8,3 C 15,8 C 4,8 km/h (1 Bft) 96,23 %
17.03.2017 17:46 15,7 C 62 % 1008,9 hPa 0,0 l/m 1,8 km/h (1 Bft) SW 217 0 min 0,000 mm 0,0 UV-I 21 W/m 8,4 C 15,7 C 3,2 km/h (1 Bft) 97,44 %
17.03.2017 17:48 15,4 C 64 % 1008,9 hPa 0,0 l/m 0,4 km/h (0 Bft) SW 217 0 min 0,000 mm 0,0 UV-I 21 W/m 8,6 C 15,4 C 1,6 km/h (1 Bft) 98,11 %
17.03.2017 17:50 15,1 C 67 % 1008,9 hPa 0,0 l/m 0,1 km/h (0 Bft) SW 217 0 min 0,000 mm 0,0 UV-I 21 W/m 9,0 C 15,1 C 1,6 km/h (1 Bft) 96,00 %
17.03.2017 17:52 14,8 C 68 % 1008,9 hPa 0,0 l/m 1,1 km/h (1 Bft) NW 314 0 min 0,000 mm 0,0 UV-I 19 W/m 9,0 C 14,8 C 4,8 km/h (1 Bft) 92,11 %
17.03.2017 17:54 14,7 C 67 % 1008,9 hPa 0,0 l/m 2,0 km/h (1 Bft) NW 312 0 min 0,000 mm 0,0 UV-I 17 W/m 8,6 C 14,7 C 4,8 km/h (1 Bft) 95,12 %
17.03.2017 17:56 14,6 C 68 % 1008,9 hPa 0,0 l/m 0,5 km/h (0 Bft) NW 312 0 min 0,000 mm 0,0 UV-I 14 W/m 8,8 C 14,6 C 1,6 km/h (1 Bft) 100,00 %
17.03.2017 17:58 14,6 C 68 % 1008,8 hPa 0,0 l/m 0,3 km/h (0 Bft) NW 312 0 min 0,000 mm 0,0 UV-I 12 W/m 8,8 C 14,6 C 3,2 km/h (1 Bft) 98,21 %
17.03.2017 18:00 14,7 C 67 % 1008,8 hPa 0,0 l/m 1,8 km/h (1 Bft) NW 313 0 min 0,000 mm 0,0 UV-I 10 W/m 8,6 C 14,7 C 4,8 km/h (1 Bft) 94,74 %
17.03.2017 18:02 14,8 C 65 % 1008,8 hPa 0,0 l/m 2,0 km/h (1 Bft) W-NW 296 0 min 0,051 mm 0,0 UV-I 8 W/m 8,3 C 14,8 C 4,8 km/h (1 Bft) 96,00 %
17.03.2017 18:04 14,9 C 64 % 1008,8 hPa 0,0 l/m 3,4 km/h (1 Bft) W-NW 282 0 min 0,000 mm 0,0 UV-I 7 W/m 8,2 C 14,9 C 6,4 km/h (2 Bft) 100,00 %
17.03.2017 18:06 14,9 C 65 % 1008,8 hPa 0,0 l/m 2,5 km/h (1 Bft) NW 317 0 min 0,000 mm 0,0 UV-I 6 W/m 8,4 C 14,9 C 6,4 km/h (2 Bft) 97,37 %
17.03.2017 18:08 15,0 C 64 % 1008,8 hPa 0,0 l/m 3,2 km/h (1 Bft) W 267 0 min 0,000 mm 0,0 UV-I 5 W/m 8,2 C 15,0 C 9,7 km/h (2 Bft) 91,07 %
17.03.2017 18:10 14,9 C 65 % 1009,0 hPa 0,0 l/m 6,1 km/h (2 Bft) W 261 0 min 0,000 mm 0,0 UV-I 5 W/m 8,4 C 14,9 C 12,9 km/h (3 Bft) 96,00 %
17.03.2017 18:12 14,9 C 63 % 1008,9 hPa 0,0 l/m 3,6 km/h (1 Bft) W-NW 290 0 min 0,000 mm 0,0 UV-I 5 W/m 7,9 C 14,9 C 9,7 km/h (2 Bft) 95,45 %
17.03.2017 18:14 14,9 C 63 % 1009,0 hPa 0,0 l/m 8,3 km/h (2 Bft) W 271 0 min 0,000 mm 0,0 UV-I 5 W/m 7,9 C 13,8 C 14,5 km/h (3 Bft) 95,74 %
17.03.2017 18:16 14,9 C 62 % 1009,1 hPa 0,0 l/m 3,7 km/h (1 Bft) W-NW 286 0 min 0,000 mm 0,0 UV-I 5 W/m 7,7 C 14,9 C 9,7 km/h (2 Bft) 92,68 %
17.03.2017 18:18 14,9 C 63 % 1009,1 hPa 0,0 l/m 3,3 km/h (1 Bft) W 261 0 min 0,000 mm 0,0 UV-I 2 W/m 7,9 C 14,9 C 8,0 km/h (2 Bft) 94,34 %
17.03.2017 18:20 14,8 C 64 % 1009,2 hPa 0,0 l/m 7,2 km/h (2 Bft) N-NW 333 0 min 0,000 mm 0,0 UV-I 0 W/m 8,1 C 14,3 C 24,1 km/h (4 Bft) 92,68 %
17.03.2017 18:22 14,7 C 64 % 1009,2 hPa 0,0 l/m 6,8 km/h (2 Bft) W 279 0 min 0,000 mm 0,0 UV-I 0 W/m 8,0 C 14,5 C 12,9 km/h (3 Bft) 92,86 %
17.03.2017 18:24 14,7 C 62 % 1009,3 hPa 0,0 l/m 8,7 km/h (2 Bft) N-NW 333 0 min 0,000 mm 0,0 UV-I 0 W/m 7,5 C 13,4 C 16,1 km/h (3 Bft) 89,66 %
17.03.2017 18:26 14,7 C 62 % 1009,4 hPa 0,0 l/m 8,3 km/h (2 Bft) NW 318 0 min 0,000 mm 0,0 UV-I 0 W/m 7,5 C 13,6 C 17,7 km/h (3 Bft) 92,31 %
17.03.2017 18:28 14,7 C 61 % 1009,5 hPa 0,0 l/m 12,4 km/h (3 Bft) W-SW 257 0 min 0,000 mm 0,0 UV-I 0 W/m 7,3 C 11,8 C 24,1 km/h (4 Bft) 96,43 %
17.03.2017 18:30 14,7 C 61 % 1009,4 hPa 0,0 l/m 7,3 km/h (2 Bft) W 277 0 min 0,000 mm 0,0 UV-I 0 W/m 7,3 C 14,2 C 16,1 km/h (3 Bft) 94,74 %
17.03.2017 18:33 14,7 C 62 % 1009,5 hPa 0,0 l/m 5,0 km/h (1 Bft) W-SW 246 0 min 0,000 mm 0,0 UV-I 0 W/m 7,5 C 14,7 C 16,1 km/h (3 Bft) 97,47 %
17.03.2017 18:34 14,6 C 62 % 1009,5 hPa 0,0 l/m 7,6 km/h (2 Bft) W-SW 253 0 min 0,000 mm 0,0 UV-I 0 W/m 7,4 C 13,9 C 12,9 km/h (3 Bft) 100,00 %
17.03.2017 18:36 14,6 C 62 % 1009,5 hPa 0,0 l/m 10,1 km/h (2 Bft) W-NW 291 0 min 0,000 mm 0,0 UV-I 0 W/m 7,4 C 12,6 C 24,1 km/h (4 Bft) 94,29 %
17.03.2017 18:38 14,6 C 62 % 1009,7 hPa 0,0 l/m 11,4 km/h (2 Bft) W-SW 248 0 min 0,000 mm 0,0 UV-I 0 W/m 7,4 C 12,1 C 20,9 km/h (4 Bft) 92,86 %
17.03.2017 18:40 14,5 C 63 % 1009,8 hPa 0,0 l/m 7,5 km/h (2 Bft) N-NW 329 0 min 0,000 mm 0,0 UV-I 0 W/m 7,5 C 13,9 C 27,4 km/h (4 Bft) 91,84 %
17.03.2017 18:42 14,4 C 63 % 1010,0 hPa 0,0 l/m 13,4 km/h (3 Bft) NW 314 0 min 0,000 mm 0,0 UV-I 0 W/m 7,4 C 11,0 C 29,0 km/h (5 Bft) 95,45 %
17.03.2017 18:44 14,4 C 63 % 1009,9 hPa 0,0 l/m 13,7 km/h (3 Bft) NW 323 0 min 0,000 mm 0,0 UV-I 0 W/m 7,4 C 10,9 C 30,6 km/h (5 Bft) 97,87 %
17.03.2017 18:46 14,4 C 64 % 1009,9 hPa 0,0 l/m 9,2 km/h (2 Bft) W-NW 285 0 min 0,000 mm 0,0 UV-I 0 W/m 7,7 C 12,8 C 17,7 km/h (3 Bft) 93,62 %
17.03.2017 18:48 14,3 C 66 % 1010,0 hPa 0,0 l/m 10,2 km/h (2 Bft) NW 313 0 min 0,000 mm 0,0 UV-I 0 W/m 8,0 C 12,3 C 20,9 km/h (4 Bft) 95,74 %
17.03.2017 18:50 14,1 C 66 % 1010,2 hPa 0,0 l/m 13,8 km/h (3 Bft) W-SW 255 0 min 0,000 mm 0,0 UV-I 0 W/m 7,8 C 10,5 C 25,7 km/h (4 Bft) 95,74 %
17.03.2017 18:52 14,0 C 67 % 1010,4 hPa 0,0 l/m 11,8 km/h (2 Bft) W-NW 284 0 min 0,000 mm 0,0 UV-I 0 W/m 8,0 C 11,2 C 30,6 km/h (5 Bft) 97,56 %
17.03.2017 18:54 13,8 C 70 % 1010,5 hPa 0,0 l/m 11,7 km/h (2 Bft) W 281 0 min 0,000 mm 0,0 UV-I 0 W/m 8,4 C 11,0 C 22,5 km/h (4 Bft) 97,56 %
17.03.2017 18:56 13,6 C 71 % 1010,5 hPa 0,0 l/m 11,3 km/h (2 Bft) W-NW 290 0 min 0,000 mm 0,0 UV-I 0 W/m 8,4 C 11,0 C 24,1 km/h (4 Bft) 96,36 %
17.03.2017 18:58 13,3 C 72 % 1010,4 hPa 0,0 l/m 19,6 km/h (3 Bft) W 272 0 min 0,000 mm 0,0 UV-I 0 W/m 8,4 C 7,7 C 41,8 km/h (6 Bft) 95,74 %
17.03.2017 19:00 13,1 C 74 % 1010,8 hPa 0,0 l/m 18,4 km/h (3 Bft) W-NW 300 0 min 0,000 mm 0,0 UV-I 0 W/m 8,6 C 7,8 C 30,6 km/h (5 Bft) 96,00 %
17.03.2017 19:02 12,8 C 76 % 1010,9 hPa 0,0 l/m 10,5 km/h (2 Bft) W-SW 253 0 min 0,051 mm 0,0 UV-I 0 W/m 8,7 C 10,4 C 22,5 km/h (4 Bft) 95,74 %
17.03.2017 19:04 12,6 C 77 % 1011,1 hPa 0,0 l/m 14,9 km/h (3 Bft) W-NW 290 0 min 0,000 mm 0,0 UV-I 0 W/m 8,7 C 8,3 C 25,7 km/h (4 Bft) 94,87 %
17.03.2017 19:06 12,3 C 78 % 1010,8 hPa 0,0 l/m 13,8 km/h (3 Bft) N-NW 338 0 min 0,000 mm 0,0 UV-I 0 W/m 8,6 C 8,4 C 27,4 km/h (4 Bft) 90,91 %
17.03.2017 19:08 12,0 C 81 % 1010,6 hPa 0,0 l/m 7,8 km/h (2 Bft) W 267 0 min 0,000 mm 0,0 UV-I 0 W/m 8,8 C 11,1 C 19,3 km/h (3 Bft) 89,83 %
17.03.2017 19:10 11,8 C 83 % 1010,7 hPa 0,0 l/m 7,9 km/h (2 Bft) W-SW 250 0 min 0,000 mm 0,0 UV-I 0 W/m 9,0 C 10,8 C 14,5 km/h (3 Bft) 95,12 %
17.03.2017 19:12 11,6 C 84 % 1010,9 hPa 0,0 l/m 10,4 km/h (2 Bft) W 278 0 min 0,000 mm 0,0 UV-I 0 W/m 9,0 C 9,1 C 22,5 km/h (4 Bft) 93,18 %
17.03.2017 19:14 11,4 C 85 % 1010,8 hPa 0,0 l/m 7,8 km/h (2 Bft) W-NW 290 0 min 0,000 mm 0,0 UV-I 0 W/m 9,0 C 10,5 C 19,3 km/h (3 Bft) 94,00 %
17.03.2017 19:16 11,3 C 85 % 1010,7 hPa 0,2 l/m 7,9 km/h (2 Bft) W-SW 254 0 min 0,000 mm 0,0 UV-I 0 W/m 8,9 C 10,3 C 16,1 km/h (3 Bft) 94,00 %
17.03.2017 19:18 11,2 C 86 % 1010,6 hPa 0,0 l/m 5,6 km/h (1 Bft) NW 309 0 min 0,000 mm 0,0 UV-I 0 W/m 8,9 C 11,2 C 17,7 km/h (3 Bft) 92,68 %
17.03.2017 19:20 11,1 C 87 % 1010,4 hPa 0,0 l/m 3,4 km/h (1 Bft) NW 313 0 min 0,000 mm 0,0 UV-I 0 W/m 9,0 C 11,1 C 6,4 km/h (2 Bft) 91,49 %
17.03.2017 19:22 10,9 C 87 % 1010,3 hPa 0,0 l/m 3,8 km/h (1 Bft) W-NW 288 0 min 0,000 mm 0,0 UV-I 0 W/m 8,8 C 10,9 C 9,7 km/h (2 Bft) 95,83 %
17.03.2017 19:24 10,8 C 88 % 1010,4 hPa 0,0 l/m 3,2 km/h (1 Bft) NW 306 0 min 0,000 mm 0,0 UV-I 0 W/m 8,9 C 10,8 C 6,4 km/h (2 Bft) 96,23 %
17.03.2017 19:26 10,8 C 88 % 1010,4 hPa 0,0 l/m 3,9 km/h (1 Bft) W-NW 287 0 min 0,000 mm 0,0 UV-I 0 W/m 8,9 C 10,8 C 8,0 km/h (2 Bft) 92,68 %
17.03.2017 19:28 10,8 C 89 % 1010,3 hPa 0,0 l/m 4,1 km/h (1 Bft) NW 309 0 min 0,000 mm 0,0 UV-I 0 W/m 9,1 C 10,8 C 6,4 km/h (2 Bft) 92,45 %
17.03.2017 19:30 10,8 C 89 % 1010,5 hPa 0,0 l/m 3,5 km/h (1 Bft) N-NW 334 0 min 0,000 mm 0,0 UV-I 0 W/m 9,1 C 10,8 C 6,4 km/h (2 Bft) 97,37 %
17.03.2017 19:32 10,8 C 89 % 1010,6 hPa 0,0 l/m 4,9 km/h (1 Bft) W-NW 284 0 min 0,000 mm 0,0 UV-I 0 W/m 9,1 C 10,8 C 9,7 km/h (2 Bft) 96,43 %
17.03.2017 19:34 10,8 C 89 % 1011,1 hPa 0,0 l/m 7,5 km/h (2 Bft) W 263 0 min 0,000 mm 0,0 UV-I 0 W/m 9,1 C 10,0 C 12,9 km/h (3 Bft) 92,11 %
17.03.2017 19:36 10,8 C 89 % 1011,5 hPa 0,0 l/m 11,9 km/h (2 Bft) W 262 0 min 0,000 mm 0,0 UV-I 0 W/m 9,1 C 7,5 C 16,1 km/h (3 Bft) 96,23 %
17.03.2017 19:38 10,8 C 89 % 1011,9 hPa 0,0 l/m 17,8 km/h (3 Bft) W 271 0 min 0,000 mm 0,0 UV-I 0 W/m 9,1 C 5,0 C 25,7 km/h (4 Bft) 100,00 %
17.03.2017 19:40 10,9 C 89 % 1012,0 hPa 0,2 l/m 19,1 km/h (3 Bft) W 271 0 min 0,000 mm 0,0 UV-I 0 W/m 9,2 C 4,7 C 30,6 km/h (5 Bft) 98,51 %
17.03.2017 19:42 10,9 C 90 % 1011,9 hPa 0,4 l/m 19,6 km/h (3 Bft) W-SW 253 0 min 0,000 mm 0,0 UV-I 0 W/m 9,3 C 4,6 C 27,4 km/h (4 Bft) 88,89 %
17.03.2017 19:44 10,9 C 90 % 1011,5 hPa 0,4 l/m 15,3 km/h (3 Bft) SW 217 0 min 0,000 mm 0,0 UV-I 0 W/m 9,3 C 6,1 C 25,7 km/h (4 Bft) 96,77 %
17.03.2017 19:46 10,8 C 90 % 1011,6 hPa 0,2 l/m 17,2 km/h (3 Bft) SW 229 0 min 0,000 mm 0,0 UV-I 0 W/m 9,2 C 5,3 C 24,1 km/h (4 Bft) 97,73 %
17.03.2017 19:48 10,8 C 90 % 1011,6 hPa 0,2 l/m 15,5 km/h (3 Bft) W-SW 250 0 min 0,000 mm 0,0 UV-I 0 W/m 9,2 C 5,9 C 20,9 km/h (4 Bft) 96,23 %
17.03.2017 19:50 10,7 C 90 % 1011,5 hPa 0,0 l/m 10,9 km/h (2 Bft) W-SW 252 0 min 0,000 mm 0,0 UV-I 0 W/m 9,1 C 7,9 C 16,1 km/h (3 Bft) 92,68 %
17.03.2017 19:52 10,7 C 91 % 1011,5 hPa 0,0 l/m 14,8 km/h (3 Bft) SW 225 0 min 0,000 mm 0,0 UV-I 0 W/m 9,3 C 6,1 C 20,9 km/h (4 Bft) 98,11 %
17.03.2017 19:54 10,7 C 91 % 1011,5 hPa 0,0 l/m 14,3 km/h (3 Bft) W-SW 245 0 min 0,000 mm 0,0 UV-I 0 W/m 9,3 C 6,3 C 20,9 km/h (4 Bft) 97,73 %
17.03.2017 19:56 10,7 C 91 % 1011,6 hPa 0,0 l/m 15,5 km/h (3 Bft) W-SW 237 0 min 0,000 mm 0,0 UV-I 0 W/m 9,3 C 5,8 C 25,7 km/h (4 Bft) 96,23 %
17.03.2017 19:58 10,7 C 91 % 1011,6 hPa 0,0 l/m 16,8 km/h (3 Bft) SW 235 0 min 0,000 mm 0,0 UV-I 0 W/m 9,3 C 5,3 C 22,5 km/h (4 Bft) 91,49 %
17.03.2017 20:00 10,7 C 91 % 1011,6 hPa 0,0 l/m 14,8 km/h (3 Bft) SW 229 0 min 0,000 mm 0,0 UV-I 0 W/m 9,3 C 6,1 C 22,5 km/h (4 Bft) 95,74 %
17.03.2017 20:02 10,7 C 91 % 1011,6 hPa 0,0 l/m 12,9 km/h (3 Bft) SW 233 0 min 0,025 mm 0,0 UV-I 0 W/m 9,3 C 6,9 C 17,7 km/h (3 Bft) 91,49 %
17.03.2017 20:04 10,7 C 91 % 1011,5 hPa 0,0 l/m 13,4 km/h (3 Bft) W-SW 250 0 min 0,000 mm 0,0 UV-I 0 W/m 9,3 C 6,7 C 19,3 km/h (3 Bft) 95,45 %
17.03.2017 20:06 10,7 C 91 % 1011,5 hPa 0,0 l/m 10,8 km/h (2 Bft) W-SW 257 0 min 0,000 mm 0,0 UV-I 0 W/m 9,3 C 7,9 C 17,7 km/h (3 Bft) 100,00 %
17.03.2017 20:08 10,7 C 91 % 1011,5 hPa 0,0 l/m 13,2 km/h (3 Bft) SW 229 0 min 0,000 mm 0,0 UV-I 0 W/m 9,3 C 6,8 C 20,9 km/h (4 Bft) 96,23 %
17.03.2017 20:10 10,7 C 90 % 1011,4 hPa 0,0 l/m 13,7 km/h (3 Bft) W-SW 247 0 min 0,000 mm 0,0 UV-I 0 W/m 9,1 C 6,5 C 19,3 km/h (3 Bft) 93,55 %
17.03.2017 20:12 10,8 C 90 % 1011,4 hPa 0,0 l/m 15,6 km/h (3 Bft) SW 220 0 min 0,000 mm 0,0 UV-I 0 W/m 9,2 C 5,9 C 24,1 km/h (4 Bft) 94,74 %
17.03.2017 20:14 10,8 C 89 % 1011,4 hPa 0,0 l/m 11,8 km/h (2 Bft) SW 236 0 min 0,000 mm 0,0 UV-I 0 W/m 9,1 C 7,5 C 17,7 km/h (3 Bft) 94,34 %
17.03.2017 20:16 10,8 C 89 % 1011,4 hPa 0,0 l/m 10,6 km/h (2 Bft) W-SW 254 0 min 0,000 mm 0,0 UV-I 0 W/m 9,1 C 8,2 C 14,5 km/h (3 Bft) 95,74 %
17.03.2017 20:18 10,8 C 89 % 1011,3 hPa 0,0 l/m 10,0 km/h (2 Bft) SW 225 0 min 0,000 mm 0,0 UV-I 0 W/m 9,1 C 8,5 C 14,5 km/h (3 Bft) 93,62 %
17.03.2017 20:20 10,8 C 89 % 1011,4 hPa 0,0 l/m 10,5 km/h (2 Bft) S 190 0 min 0,000 mm 0,0 UV-I 0 W/m 9,1 C 8,2 C 16,1 km/h (3 Bft) 92,86 %
17.03.2017 20:22 10,8 C 88 % 1011,3 hPa 0,0 l/m 9,0 km/h (2 Bft) SW 227 0 min 0,000 mm 0,0 UV-I 0 W/m 8,9 C 9,1 C 14,5 km/h (3 Bft) 100,00 %
17.03.2017 20:24 10,8 C 88 % 1011,3 hPa 0,0 l/m 9,7 km/h (2 Bft) SW 227 0 min 0,000 mm 0,0 UV-I 0 W/m 8,9 C 8,6 C 16,1 km/h (3 Bft) 100,00 %
17.03.2017 20:26 10,8 C 88 % 1011,3 hPa 0,0 l/m 8,9 km/h (2 Bft) S-SW 209 0 min 0,000 mm 0,0 UV-I 0 W/m 8,9 C 9,1 C 12,9 km/h (3 Bft) 98,11 %
17.03.2017 20:28 10,8 C 88 % 1011,3 hPa 0,0 l/m 11,5 km/h (2 Bft) SW 216 0 min 0,000 mm 0,0 UV-I 0 W/m 8,9 C 7,7 C 17,7 km/h (3 Bft) 96,23 %
17.03.2017 20:30 10,8 C 88 % 1011,3 hPa 0,0 l/m 10,1 km/h (2 Bft) W-SW 240 0 min 0,000 mm 0,0 UV-I 0 W/m 8,9 C 8,4 C 16,1 km/h (3 Bft) 100,00 %
17.03.2017 20:32 10,8 C 88 % 1011,3 hPa 0,0 l/m 11,0 km/h (2 Bft) SW 229 0 min 0,000 mm 0,0 UV-I 0 W/m 8,9 C 7,9 C 17,7 km/h (3 Bft) 100,00 %
17.03.2017 20:34 10,8 C 88 % 1011,4 hPa 0,0 l/m 12,0 km/h (2 Bft) W 262 0 min 0,000 mm 0,0 UV-I 0 W/m 8,9 C 7,4 C 19,3 km/h (3 Bft) 96,43 %
17.03.2017 20:36 10,8 C 88 % 1011,4 hPa 0,0 l/m 12,5 km/h (3 Bft) W-SW 242 0 min 0,000 mm 0,0 UV-I 0 W/m 8,9 C 7,2 C 19,3 km/h (3 Bft) 96,15 %
17.03.2017 20:38 10,8 C 88 % 1011,4 hPa 0,0 l/m 10,8 km/h (2 Bft) W-SW 240 0 min 0,000 mm 0,0 UV-I 0 W/m 8,9 C 8,0 C 17,7 km/h (3 Bft) 100,00 %
17.03.2017 20:40 10,8 C 88 % 1011,4 hPa 0,0 l/m 11,3 km/h (2 Bft) W-SW 238 0 min 0,000 mm 0,0 UV-I 0 W/m 8,9 C 7,8 C 16,1 km/h (3 Bft) 100,00 %
17.03.2017 20:42 10,8 C 88 % 1011,4 hPa 0,0 l/m 13,8 km/h (3 Bft) W-SW 256 0 min 0,000 mm 0,0 UV-I 0 W/m 8,9 C 6,6 C 20,9 km/h (4 Bft) 100,00 %
17.03.2017 20:44 10,9 C 88 % 1011,4 hPa 0,0 l/m 13,3 km/h (3 Bft) W 262 0 min 0,000 mm 0,0 UV-I 0 W/m 9,0 C 6,9 C 20,9 km/h (4 Bft) 98,21 %
17.03.2017 20:46 10,9 C 88 % 1011,6 hPa 0,0 l/m 17,1 km/h (3 Bft) SW 229 0 min 0,000 mm 0,0 UV-I 0 W/m 9,0 C 5,4 C 22,5 km/h (4 Bft) 100,00 %
17.03.2017 20:50 10,9 C 87 % 1011,5 hPa 0,0 l/m 14,0 km/h (3 Bft) W-SW 257 0 min 0,000 mm 0,0 UV-I 0 W/m 8,8 C 6,6 C 22,5 km/h (4 Bft) 97,67 %
17.03.2017 20:52 11,0 C 86 % 1011,5 hPa 0,0 l/m 16,1 km/h (3 Bft) SW 231 0 min 0,000 mm 0,0 UV-I 0 W/m 8,7 C 5,9 C 24,1 km/h (4 Bft) 95,12 %
17.03.2017 20:54 11,0 C 86 % 1011,4 hPa 0,0 l/m 18,6 km/h (3 Bft) W-SW 253 0 min 0,000 mm 0,0 UV-I 0 W/m 8,7 C 5,0 C 25,7 km/h (4 Bft) 98,21 %
17.03.2017 20:56 11,0 C 86 % 1011,4 hPa 0,0 l/m 17,6 km/h (3 Bft) SW 227 0 min 0,000 mm 0,0 UV-I 0 W/m 8,7 C 5,4 C 27,4 km/h (4 Bft) 97,56 %
17.03.2017 20:58 11,0 C 86 % 1011,4 hPa 0,0 l/m 14,2 km/h (3 Bft) W-SW 242 0 min 0,000 mm 0,0 UV-I 0 W/m 8,7 C 6,7 C 19,3 km/h (3 Bft) 100,00 %
17.03.2017 21:00 10,9 C 86 % 1011,3 hPa 0,0 l/m 15,0 km/h (3 Bft) S-SW 194 0 min 0,000 mm 0,0 UV-I 0 W/m 8,7 C 6,2 C 20,9 km/h (4 Bft) 98,53 %
17.03.2017 21:02 10,9 C 86 % 1011,3 hPa 0,0 l/m 13,6 km/h (3 Bft) S-SW 208 0 min 0,025 mm 0,0 UV-I 0 W/m 8,7 C 6,8 C 19,3 km/h (3 Bft) 97,56 %
17.03.2017 21:04 10,9 C 86 % 1011,2 hPa 0,0 l/m 11,2 km/h (2 Bft) SW 229 0 min 0,000 mm 0,0 UV-I 0 W/m 8,7 C 7,9 C 17,7 km/h (3 Bft) 97,73 %
17.03.2017 21:06 10,9 C 86 % 1011,2 hPa 0,0 l/m 11,3 km/h (2 Bft) SW 234 0 min 0,000 mm 0,0 UV-I 0 W/m 8,7 C 7,9 C 16,1 km/h (3 Bft) 98,11 %
17.03.2017 21:08 10,9 C 86 % 1011,2 hPa 0,0 l/m 13,3 km/h (3 Bft) W-SW 248 0 min 0,000 mm 0,0 UV-I 0 W/m 8,7 C 6,9 C 19,3 km/h (3 Bft) 96,00 %
17.03.2017 21:10 10,8 C 86 % 1011,2 hPa 0,0 l/m 10,0 km/h (2 Bft) SW 236 0 min 0,000 mm 0,0 UV-I 0 W/m 8,6 C 8,5 C 14,5 km/h (3 Bft) 97,73 %
17.03.2017 21:12 10,8 C 87 % 1011,2 hPa 0,0 l/m 9,3 km/h (2 Bft) W-SW 248 0 min 0,000 mm 0,0 UV-I 0 W/m 8,7 C 8,9 C 14,5 km/h (3 Bft) 97,56 %
17.03.2017 21:14 10,8 C 87 % 1011,1 hPa 0,0 l/m 10,7 km/h (2 Bft) W-SW 243 0 min 0,000 mm 0,0 UV-I 0 W/m 8,7 C 8,1 C 17,7 km/h (3 Bft) 98,11 %
17.03.2017 21:16 10,8 C 87 % 1011,2 hPa 0,0 l/m 12,2 km/h (2 Bft) W 262 0 min 0,000 mm 0,0 UV-I 0 W/m 8,7 C 7,3 C 16,1 km/h (3 Bft) 95,35 %
17.03.2017 21:18 10,8 C 87 % 1011,3 hPa 0,0 l/m 12,6 km/h (3 Bft) W-SW 255 0 min 0,000 mm 0,0 UV-I 0 W/m 8,7 C 7,1 C 17,7 km/h (3 Bft) 94,55 %
17.03.2017 21:20 10,8 C 87 % 1011,2 hPa 0,0 l/m 9,8 km/h (2 Bft) W 275 0 min 0,000 mm 0,0 UV-I 0 W/m 8,7 C 8,6 C 14,5 km/h (3 Bft) 97,44 %
17.03.2017 21:22 10,8 C 87 % 1011,1 hPa 0,0 l/m 8,8 km/h (2 Bft) SW 227 0 min 0,000 mm 0,0 UV-I 0 W/m 8,7 C 9,2 C 12,9 km/h (3 Bft) 96,23 %
17.03.2017 21:24 10,8 C 87 % 1011,2 hPa 0,0 l/m 9,2 km/h (2 Bft) W-SW 249 0 min 0,000 mm 0,0 UV-I 0 W/m 8,7 C 8,9 C 12,9 km/h (3 Bft) 94,74 %
17.03.2017 21:26 10,8 C 87 % 1011,3 hPa 0,0 l/m 13,1 km/h (3 Bft) W 269 0 min 0,000 mm 0,0 UV-I 0 W/m 8,7 C 6,9 C 16,1 km/h (3 Bft) 96,23 %
17.03.2017 21:28 10,9 C 87 % 1011,3 hPa 0,0 l/m 12,4 km/h (3 Bft) W-SW 254 0 min 0,000 mm 0,0 UV-I 0 W/m 8,8 C 7,4 C 17,7 km/h (3 Bft) 97,37 %
17.03.2017 21:30 10,9 C 87 % 1011,4 hPa 0,0 l/m 11,4 km/h (2 Bft) W-SW 251 0 min 0,000 mm 0,0 UV-I 0 W/m 8,8 C 7,8 C 17,7 km/h (3 Bft) 94,92 %
17.03.2017 21:32 10,9 C 87 % 1011,4 hPa 0,0 l/m 10,8 km/h (2 Bft) W-SW 242 0 min 0,000 mm 0,0 UV-I 0 W/m 8,8 C 8,2 C 17,7 km/h (3 Bft) 92,68 %
17.03.2017 21:34 10,9 C 87 % 1011,4 hPa 0,0 l/m 8,9 km/h (2 Bft) W 259 0 min 0,000 mm 0,0 UV-I 0 W/m 8,8 C 9,2 C 12,9 km/h (3 Bft) 97,87 %
17.03.2017 21:36 10,9 C 87 % 1011,4 hPa 0,0 l/m 10,7 km/h (2 Bft) S-SW 211 0 min 0,000 mm 0,0 UV-I 0 W/m 8,8 C 8,2 C 16,1 km/h (3 Bft) 98,00 %
17.03.2017 21:38 10,9 C 87 % 1011,4 hPa 0,0 l/m 8,8 km/h (2 Bft) W-SW 244 0 min 0,000 mm 0,0 UV-I 0 W/m 8,8 C 9,3 C 11,3 km/h (2 Bft) 92,00 %
17.03.2017 21:40 10,9 C 87 % 1011,4 hPa 0,0 l/m 8,5 km/h (2 Bft) SW 224 0 min 0,000 mm 0,0 UV-I 0 W/m 8,8 C 9,5 C 12,9 km/h (3 Bft) 97,37 %
17.03.2017 21:42 10,9 C 87 % 1011,5 hPa 0,0 l/m 9,3 km/h (2 Bft) SW 227 0 min 0,000 mm 0,0 UV-I 0 W/m 8,8 C 9,0 C 11,3 km/h (2 Bft) 96,43 %
17.03.2017 21:44 10,9 C 87 % 1011,4 hPa 0,0 l/m 7,2 km/h (2 Bft) W-SW 246 0 min 0,000 mm 0,0 UV-I 0 W/m 8,8 C 10,3 C 11,3 km/h (2 Bft) 97,37 %
17.03.2017 21:46 10,9 C 87 % 1011,3 hPa 0,0 l/m 7,8 km/h (2 Bft) SW 232 0 min 0,000 mm 0,0 UV-I 0 W/m 8,8 C 9,9 C 12,9 km/h (3 Bft) 100,00 %
17.03.2017 21:48 10,8 C 87 % 1011,3 hPa 0,0 l/m 8,3 km/h (2 Bft) S-SW 213 0 min 0,000 mm 0,0 UV-I 0 W/m 8,7 C 9,5 C 12,9 km/h (3 Bft) 98,00 %
17.03.2017 21:50 10,8 C 88 % 1011,2 hPa 0,0 l/m 6,3 km/h (2 Bft) SW 233 0 min 0,000 mm 0,0 UV-I 0 W/m 8,9 C 10,8 C 9,7 km/h (2 Bft) 97,87 %
17.03.2017 21:52 10,8 C 88 % 1011,3 hPa 0,0 l/m 5,3 km/h (1 Bft) SW 231 0 min 0,000 mm 0,0 UV-I 0 W/m 8,9 C 10,8 C 9,7 km/h (2 Bft) 100,00 %
17.03.2017 21:54 10,7 C 88 % 1011,3 hPa 0,0 l/m 9,7 km/h (2 Bft) W-SW 251 0 min 0,000 mm 0,0 UV-I 0 W/m 8,8 C 8,5 C 12,9 km/h (3 Bft) 98,11 %
17.03.2017 21:56 10,7 C 88 % 1011,4 hPa 0,0 l/m 6,9 km/h (2 Bft) W-SW 238 0 min 0,000 mm 0,0 UV-I 0 W/m 8,8 C 10,4 C 9,7 km/h (2 Bft) 100,00 %
17.03.2017 21:58 10,7 C 89 % 1011,4 hPa 0,0 l/m 7,7 km/h (2 Bft) W-SW 240 0 min 0,000 mm 0,0 UV-I 0 W/m 9,0 C 9,8 C 12,9 km/h (3 Bft) 96,30 %
17.03.2017 22:00 10,7 C 89 % 1011,1 hPa 0,0 l/m 7,6 km/h (2 Bft) SW 232 0 min 0,026 mm 0,0 UV-I 0 W/m 9,0 C 9,9 C 16,1 km/h (3 Bft) 98,39 %
17.03.2017 22:02 10,7 C 89 % 1011,4 hPa 0,2 l/m 7,6 km/h (2 Bft) W-SW 243 0 min 0,000 mm 0,0 UV-I 0 W/m 9,0 C 9,9 C 11,3 km/h (2 Bft) 100,00 %
17.03.2017 22:04 10,6 C 89 % 1011,4 hPa 0,0 l/m 8,5 km/h (2 Bft) SW 230 0 min 0,000 mm 0,0 UV-I 0 W/m 8,9 C 9,2 C 11,3 km/h (2 Bft) 100,00 %
17.03.2017 22:06 10,6 C 89 % 1011,4 hPa 0,0 l/m 9,4 km/h (2 Bft) SW 229 0 min 0,000 mm 0,0 UV-I 0 W/m 8,9 C 8,6 C 14,5 km/h (3 Bft) 98,00 %
17.03.2017 22:08 10,6 C 90 % 1011,4 hPa 0,0 l/m 8,2 km/h (2 Bft) SW 226 0 min 0,000 mm 0,0 UV-I 0 W/m 9,0 C 9,4 C 11,3 km/h (2 Bft) 100,00 %
17.03.2017 22:10 10,5 C 90 % 1011,3 hPa 0,0 l/m 6,4 km/h (2 Bft) W-SW 256 0 min 0,000 mm 0,0 UV-I 0 W/m 8,9 C 10,5 C 12,9 km/h (3 Bft) 100,00 %
17.03.2017 22:12 10,5 C 90 % 1011,3 hPa 0,0 l/m 6,1 km/h (2 Bft) W-SW 246 0 min 0,000 mm 0,0 UV-I 0 W/m 8,9 C 10,5 C 9,7 km/h (2 Bft) 97,56 %
17.03.2017 22:14 10,4 C 90 % 1011,6 hPa 0,0 l/m 8,2 km/h (2 Bft) W-SW 249 0 min 0,000 mm 0,0 UV-I 0 W/m 8,8 C 9,1 C 12,9 km/h (3 Bft) 98,21 %
17.03.2017 22:16 10,4 C 90 % 1011,6 hPa 0,0 l/m 6,2 km/h (2 Bft) W 271 0 min 0,000 mm 0,0 UV-I 0 W/m 8,8 C 10,4 C 11,3 km/h (2 Bft) 98,11 %
17.03.2017 22:18 10,4 C 90 % 1011,2 hPa 0,0 l/m 5,7 km/h (1 Bft) W 259 0 min 0,000 mm 0,0 UV-I 0 W/m 8,8 C 10,4 C 11,3 km/h (2 Bft) 97,56 %
17.03.2017 22:20 10,4 C 91 % 1011,5 hPa 0,0 l/m 8,5 km/h (2 Bft) W-SW 245 0 min 0,000 mm 0,0 UV-I 0 W/m 9,0 C 8,9 C 12,9 km/h (3 Bft) 97,37 %
17.03.2017 22:22 10,3 C 91 % 1011,5 hPa 0,2 l/m 7,5 km/h (2 Bft) SW 234 0 min 0,000 mm 0,0 UV-I 0 W/m 8,9 C 9,5 C 11,3 km/h (2 Bft) 100,00 %
17.03.2017 22:24 10,3 C 91 % 1011,6 hPa 0,0 l/m 8,5 km/h (2 Bft) W-SW 254 0 min 0,000 mm 0,0 UV-I 0 W/m 8,9 C 8,8 C 12,9 km/h (3 Bft) 96,43 %
17.03.2017 22:26 10,3 C 91 % 1011,6 hPa 0,0 l/m 8,2 km/h (2 Bft) W-SW 255 0 min 0,000 mm 0,0 UV-I 0 W/m 8,9 C 9,0 C 12,9 km/h (3 Bft) 100,00 %
17.03.2017 22:28 10,3 C 91 % 1011,5 hPa 0,0 l/m 8,8 km/h (2 Bft) W-SW 253 0 min 0,000 mm 0,0 UV-I 0 W/m 8,9 C 8,6 C 12,9 km/h (3 Bft) 100,00 %
17.03.2017 22:30 10,3 C 91 % 1011,4 hPa 0,0 l/m 6,2 km/h (2 Bft) W 262 0 min 0,000 mm 0,0 UV-I 0 W/m 8,9 C 10,3 C 11,3 km/h (2 Bft) 93,18 %
17.03.2017 22:32 10,3 C 91 % 1011,5 hPa 0,0 l/m 7,6 km/h (2 Bft) W 267 0 min 0,000 mm 0,0 UV-I 0 W/m 8,9 C 9,4 C 11,3 km/h (2 Bft) 96,00 %
17.03.2017 22:34 10,3 C 91 % 1011,6 hPa 0,0 l/m 5,4 km/h (1 Bft) W 273 0 min 0,000 mm 0,0 UV-I 0 W/m 8,9 C 10,3 C 6,4 km/h (2 Bft) 97,73 %
17.03.2017 22:36 10,3 C 92 % 1011,5 hPa 0,0 l/m 5,6 km/h (1 Bft) W-SW 257 0 min 0,000 mm 0,0 UV-I 0 W/m 9,1 C 10,3 C 9,7 km/h (2 Bft) 91,67 %
17.03.2017 22:38 10,2 C 92 % 1011,6 hPa 0,0 l/m 7,2 km/h (2 Bft) W 273 0 min 0,000 mm 0,0 UV-I 0 W/m 9,0 C 9,6 C 11,3 km/h (2 Bft) 98,59 %
17.03.2017 22:40 10,2 C 92 % 1011,6 hPa 0,0 l/m 6,9 km/h (2 Bft) W-SW 246 0 min 0,000 mm 0,0 UV-I 0 W/m 9,0 C 9,8 C 11,3 km/h (2 Bft) 95,12 %
17.03.2017 22:42 10,2 C 92 % 1011,7 hPa 0,0 l/m 11,1 km/h (2 Bft) W 265 0 min 0,000 mm 0,0 UV-I 0 W/m 9,0 C 7,2 C 17,7 km/h (3 Bft) 94,34 %
17.03.2017 22:44 10,2 C 92 % 1011,7 hPa 0,0 l/m 4,6 km/h (1 Bft) W 271 0 min 0,000 mm 0,0 UV-I 0 W/m 9,0 C 10,2 C 9,7 km/h (2 Bft) 98,00 %
17.03.2017 22:46 10,2 C 92 % 1011,6 hPa 0,4 l/m 9,2 km/h (2 Bft) W 273 0 min 0,000 mm 0,0 UV-I 0 W/m 9,0 C 8,3 C 14,5 km/h (3 Bft) 94,74 %
17.03.2017 22:48 10,2 C 92 % 1011,7 hPa 0,0 l/m 7,1 km/h (2 Bft) W-SW 258 0 min 0,000 mm 0,0 UV-I 0 W/m 9,0 C 9,7 C 12,9 km/h (3 Bft) 94,00 %
17.03.2017 22:50 10,1 C 92 % 1011,7 hPa 0,0 l/m 8,0 km/h (2 Bft) W 265 0 min 0,000 mm 0,0 UV-I 0 W/m 8,9 C 9,0 C 11,3 km/h (2 Bft) 97,56 %
17.03.2017 22:52 10,1 C 92 % 1011,7 hPa 0,0 l/m 13,1 km/h (3 Bft) W-NW 299 0 min 0,000 mm 0,0 UV-I 0 W/m 8,9 C 6,1 C 20,9 km/h (4 Bft) 96,23 %
17.03.2017 22:54 10,1 C 92 % 1011,7 hPa 0,0 l/m 13,1 km/h (3 Bft) W 269 0 min 0,000 mm 0,0 UV-I 0 W/m 8,9 C 6,1 C 25,7 km/h (4 Bft) 92,68 %
17.03.2017 22:56 10,0 C 92 % 1011,8 hPa 0,0 l/m 8,6 km/h (2 Bft) W 279 0 min 0,000 mm 0,0 UV-I 0 W/m 8,8 C 8,5 C 16,1 km/h (3 Bft) 98,21 %
17.03.2017 22:58 9,9 C 91 % 1011,8 hPa 0,2 l/m 7,1 km/h (2 Bft) W-NW 298 0 min 0,000 mm 0,0 UV-I 0 W/m 8,5 C 9,4 C 11,3 km/h (2 Bft) 93,75 %
17.03.2017 23:00 9,8 C 91 % 1011,8 hPa 0,2 l/m 10,9 km/h (2 Bft) NW 319 0 min 0,000 mm 0,0 UV-I 0 W/m 8,4 C 6,9 C 19,3 km/h (3 Bft) 98,31 %
17.03.2017 23:02 9,8 C 91 % 1011,8 hPa 0,0 l/m 8,3 km/h (2 Bft) W-SW 243 0 min 0,000 mm 0,0 UV-I 0 W/m 8,4 C 8,4 C 12,9 km/h (3 Bft) 100,00 %
17.03.2017 23:04 9,7 C 91 % 1011,8 hPa 0,0 l/m 9,2 km/h (2 Bft) W 275 0 min 0,000 mm 0,0 UV-I 0 W/m 8,3 C 7,7 C 20,9 km/h (4 Bft) 93,62 %
17.03.2017 23:06 9,6 C 91 % 1011,9 hPa 0,2 l/m 11,5 km/h (2 Bft) W-NW 283 0 min 0,000 mm 0,0 UV-I 0 W/m 8,2 C 6,3 C 22,5 km/h (4 Bft) 93,62 %
17.03.2017 23:08 9,6 C 91 % 1011,9 hPa 0,2 l/m 13,2 km/h (3 Bft) W 273 0 min 0,000 mm 0,0 UV-I 0 W/m 8,2 C 5,5 C 22,5 km/h (4 Bft) 95,45 %
17.03.2017 23:10 9,5 C 91 % 1011,9 hPa 0,0 l/m 9,9 km/h (2 Bft) W 280 0 min 0,000 mm 0,0 UV-I 0 W/m 8,1 C 7,1 C 16,1 km/h (3 Bft) 95,24 %
17.03.2017 23:12 9,4 C 91 % 1011,9 hPa 0,0 l/m 6,7 km/h (2 Bft) W-NW 283 0 min 0,000 mm 0,0 UV-I 0 W/m 8,0 C 9,2 C 11,3 km/h (2 Bft) 96,36 %
17.03.2017 23:14 9,3 C 91 % 1012,0 hPa 0,2 l/m 9,5 km/h (2 Bft) W-SW 251 0 min 0,000 mm 0,0 UV-I 0 W/m 7,9 C 7,1 C 17,7 km/h (3 Bft) 97,73 %
17.03.2017 23:16 9,3 C 91 % 1012,0 hPa 0,2 l/m 9,2 km/h (2 Bft) W 277 0 min 0,000 mm 0,0 UV-I 0 W/m 7,9 C 7,3 C 14,5 km/h (3 Bft) 95,83 %
17.03.2017 23:18 9,2 C 92 % 1012,0 hPa 0,0 l/m 12,7 km/h (3 Bft) W 273 0 min 0,000 mm 0,0 UV-I 0 W/m 8,0 C 5,2 C 22,5 km/h (4 Bft) 92,68 %
17.03.2017 23:20 9,2 C 92 % 1011,9 hPa 0,0 l/m 11,8 km/h (2 Bft) W 269 0 min 0,000 mm 0,0 UV-I 0 W/m 8,0 C 5,7 C 16,1 km/h (3 Bft) 94,00 %
17.03.2017 23:22 9,2 C 92 % 1011,7 hPa 0,0 l/m 9,7 km/h (2 Bft) W-NW 297 0 min 0,000 mm 0,0 UV-I 0 W/m 8,0 C 6,9 C 14,5 km/h (3 Bft) 95,12 %
17.03.2017 23:24 9,1 C 92 % 1011,7 hPa 0,2 l/m 11,3 km/h (2 Bft) W 281 0 min 0,000 mm 0,0 UV-I 0 W/m 7,9 C 5,9 C 16,1 km/h (3 Bft) 92,00 %
17.03.2017 23:26 9,1 C 92 % 1011,8 hPa 0,0 l/m 8,0 km/h (2 Bft) W 270 0 min 0,000 mm 0,0 UV-I 0 W/m 7,9 C 7,9 C 14,5 km/h (3 Bft) 92,86 %
17.03.2017 23:28 9,0 C 92 % 1011,8 hPa 0,0 l/m 8,2 km/h (2 Bft) W 274 0 min 0,000 mm 0,0 UV-I 0 W/m 7,8 C 7,7 C 16,1 km/h (3 Bft) 94,74 %
17.03.2017 23:30 8,9 C 92 % 1011,8 hPa 0,0 l/m 12,4 km/h (3 Bft) W 269 0 min 0,000 mm 0,0 UV-I 0 W/m 7,7 C 5,0 C 17,7 km/h (3 Bft) 92,45 %
17.03.2017 23:32 8,9 C 93 % 1011,7 hPa 0,0 l/m 9,8 km/h (2 Bft) W-NW 283 0 min 0,000 mm 0,0 UV-I 0 W/m 7,8 C 6,5 C 16,1 km/h (3 Bft) 96,00 %
17.03.2017 23:34 8,8 C 93 % 1011,7 hPa 0,0 l/m 11,9 km/h (2 Bft) W 275 0 min 0,000 mm 0,0 UV-I 0 W/m 7,7 C 5,2 C 17,7 km/h (3 Bft) 95,65 %
17.03.2017 23:36 8,8 C 93 % 1011,8 hPa 0,0 l/m 9,9 km/h (2 Bft) W 261 0 min 0,000 mm 0,0 UV-I 0 W/m 7,7 C 6,3 C 17,7 km/h (3 Bft) 95,59 %
17.03.2017 23:38 8,8 C 93 % 1011,8 hPa 0,0 l/m 9,4 km/h (2 Bft) W-SW 242 0 min 0,000 mm 0,0 UV-I 0 W/m 7,7 C 6,6 C 12,9 km/h (3 Bft) 97,73 %
17.03.2017 23:40 8,8 C 93 % 1011,6 hPa 0,0 l/m 10,4 km/h (2 Bft) W 280 0 min 0,000 mm 0,0 UV-I 0 W/m 7,7 C 6,0 C 14,5 km/h (3 Bft) 96,00 %
17.03.2017 23:42 8,8 C 93 % 1011,6 hPa 0,0 l/m 11,6 km/h (2 Bft) W-SW 255 0 min 0,000 mm 0,0 UV-I 0 W/m 7,7 C 5,3 C 17,7 km/h (3 Bft) 92,11 %
17.03.2017 23:44 8,7 C 93 % 1011,6 hPa 0,0 l/m 11,1 km/h (2 Bft) SW 236 0 min 0,000 mm 0,0 UV-I 0 W/m 7,6 C 5,5 C 16,1 km/h (3 Bft) 98,11 %
17.03.2017 23:46 8,7 C 93 % 1011,6 hPa 0,0 l/m 10,3 km/h (2 Bft) W 268 0 min 0,000 mm 0,0 UV-I 0 W/m 7,6 C 6,0 C 16,1 km/h (3 Bft) 94,74 %
17.03.2017 23:48 8,7 C 93 % 1011,4 hPa 0,0 l/m 11,0 km/h (2 Bft) W-SW 257 0 min 0,000 mm 0,0 UV-I 0 W/m 7,6 C 5,6 C 20,9 km/h (4 Bft) 96,23 %
17.03.2017 23:50 8,7 C 93 % 1011,3 hPa 0,0 l/m 10,7 km/h (2 Bft) W-SW 256 0 min 0,000 mm 0,0 UV-I 0 W/m 7,6 C 5,7 C 14,5 km/h (3 Bft) 96,55 %
17.03.2017 23:52 8,7 C 92 % 1011,1 hPa 0,0 l/m 8,3 km/h (2 Bft) W-SW 256 0 min 0,000 mm 0,0 UV-I 0 W/m 7,5 C 7,3 C 14,5 km/h (3 Bft) 98,31 %
17.03.2017 23:54 8,7 C 92 % 1011,2 hPa 0,0 l/m 8,9 km/h (2 Bft) W-SW 254 0 min 0,000 mm 0,0 UV-I 0 W/m 7,5 C 6,9 C 14,5 km/h (3 Bft) 98,11 %
17.03.2017 23:56 8,7 C 92 % 1011,2 hPa 0,0 l/m 9,5 km/h (2 Bft) W-SW 248 0 min 0,000 mm 0,0 UV-I 0 W/m 7,5 C 6,5 C 12,9 km/h (3 Bft) 95,74 %
17.03.2017 23:58 8,7 C 92 % 1011,2 hPa 0,0 l/m 9,7 km/h (2 Bft) W 261 0 min 0,000 mm 0,0 UV-I 0 W/m 7,5 C 6,3 C 14,5 km/h (3 Bft) 100,00 %
_ Min-Zeit 05:44 13:52 17:40 - 02:22 - - - - - - 06:20 05:44 02:22 17:20
Minimum _ -0,3 C 46 % 1008,7 hPa - 0,0 km/h (0 Bft) - - - - - - -1,9 C -0,3 C 0,0 km/h (0 Bft) 85,11 %
_ Max-Zeit 13:48 23:32 00:00 19:42 18:58 - - 06:24 14:00 11:30 13:42 16:12 13:48 18:58 00:00
Maximum _ 18,9 C 93 % 1020,3 hPa 0,4 l/m 19,6 km/h
W (3 Bft)
- - 2 min 0,356 mm 2,8 UV-I 817 W/m 9,9 C 18,9 C 41,8 km/h
W-NW (6 Bft)
100,00 %
Durchschnitt _ 9,2 C 72 % 1014,4 hPa #4,0 l/m 4,8 km/h (1 Bft) W - #9:14 h #2,464 mm 1,8 UV-I 338 W/m 4,0 C 8,6 C 8,5 km/h (2 Bft) 96,57 %